Time,TemperatureF,DewpointF,PressureIn,WindDirection,WindDirectionDegrees,WindSpeedMPH,WindSpeedGustMPH,Humidity,HourlyPrecipIn,Conditions,Clouds,dailyrainin,SoftwareType,DateUTC
2013-12-24 00:01:00,29.0,19.4,30.30,West,272,1.1,1.1,67,0.00,CLR,,0.00,WeatherDisplay:10.37,2013-12-24 05:01:00,
2013-12-24 00:06:00,29.0,19.8,30.30,West,277,1.1,1.1,68,0.00,CLR,,0.00,WeatherDisplay:10.37,2013-12-24 05:06:00,
2013-12-24 00:07:00,29.0,19.8,30.30,West,277,0.0,0.0,68,0.00,CLR,,0.00,WeatherDisplay:10.37,2013-12-24 05:07:00,
2013-12-24 00:11:00,29.0,20.1,30.30,West,277,1.1,1.1,69,0.00,CLR,,0.00,WeatherDisplay:10.37,2013-12-24 05:11:00,
2013-12-24 00:12:00,29.0,20.1,30.30,WSW,251,1.1,1.1,69,0.00,CLR,,0.00,WeatherDisplay:10.37,2013-12-24 05:12:00,
2013-12-24 00:16:00,29.0,20.8,30.30,West,267,1.1,1.1,71,0.00,CLR,,0.00,WeatherDisplay:10.37,2013-12-24 05:16:00,
2013-12-24 00:17:00,29.0,21.1,30.30,WNW,282,1.1,1.1,72,0.00,CLR,,0.00,WeatherDisplay:10.37,2013-12-24 05:17:00,
2013-12-24 00:21:00,28.8,21.6,30.30,WNW,287,0.0,0.0,74,0.00,CLR,,0.00,WeatherDisplay:10.37,2013-12-24 05:21:00,
2013-12-24 00:22:00,28.8,21.6,30.30,WNW,287,0.0,0.0,74,0.00,CLR,,0.00,WeatherDisplay:10.37,2013-12-24 05:22:00,
2013-12-24 00:26:00,28.7,21.8,30.30,WNW,288,1.1,1.1,75,0.00,CLR,,0.00,WeatherDisplay:10.37,2013-12-24 05:26:00,
2013-12-24 00:27:00,28.7,22.1,30.30,WNW,288,5.8,5.8,76,0.00,CLR,,0.00,WeatherDisplay:10.37,2013-12-24 05:27:00,
2013-12-24 00:28:00,28.7,22.1,30.31,West,275,1.1,1.1,76,0.00,CLR,,0.00,WeatherDisplay:10.37,2013-12-24 05:28:00,
2013-12-24 00:32:00,28.5,22.5,30.31,West,274,4.6,4.6,78,0.00,CLR,,0.00,WeatherDisplay:10.37,2013-12-24 05:32:00,
2013-12-24 00:33:00,28.5,22.5,30.31,WNW,302,1.1,1.1,78,0.00,CLR,,0.00,WeatherDisplay:10.37,2013-12-24 05:33:00,
2013-12-24 00:37:00,28.4,23.0,30.31,WSW,254,7.0,7.0,80,0.00,CLR,,0.00,WeatherDisplay:10.37,2013-12-24 05:37:00,
2013-12-24 00:38:00,28.2,22.8,30.31,West,265,10.4,10.4,80,0.00,CLR,,0.00,WeatherDisplay:10.37,2013-12-24 05:38:00,
2013-12-24 00:39:00,28.2,22.8,30.30,West,281,1.1,1.1,80,0.00,CLR,,0.00,WeatherDisplay:10.37,2013-12-24 05:39:00,
2013-12-24 00:42:00,28.2,23.1,30.30,WSW,253,0.0,0.0,81,0.00,CLR,,0.00,WeatherDisplay:10.37,2013-12-24 05:42:00,
2013-12-24 00:43:00,28.1,23.3,30.30,WSW,253,0.0,0.1,82,0.00,CLR,,0.00,WeatherDisplay:10.37,2013-12-24 05:43:00,
2013-12-24 00:44:00,28.1,23.3,30.30,WSW,253,1.1,0.0,82,0.00,CLR,,0.00,WeatherDisplay:10.37,2013-12-24 05:44:00,
2013-12-24 00:47:00,28.1,23.3,30.30,WSW,253,1.1,0.0,82,0.00,CLR,,0.00,WeatherDisplay:10.37,2013-12-24 05:47:00,
2013-12-24 00:48:00,28.1,23.3,30.30,WSW,253,1.1,0.0,82,0.00,CLR,,0.00,WeatherDisplay:10.37,2013-12-24 05:48:00,
2013-12-24 00:49:00,28.1,23.3,30.30,WSW,253,0.0,0.0,82,0.00,CLR,,0.00,WeatherDisplay:10.37,2013-12-24 05:49:00,
2013-12-24 00:52:00,28.1,23.6,30.30,WSW,253,0.0,0.0,83,0.00,CLR,,0.00,WeatherDisplay:10.37,2013-12-24 05:52:00,
2013-12-24 00:53:00,28.1,23.6,30.30,WSW,253,0.0,0.0,83,0.00,CLR,,0.00,WeatherDisplay:10.37,2013-12-24 05:53:00,
2013-12-24 00:54:00,28.1,23.6,30.30,WSW,253,0.0,0.0,83,0.00,CLR,,0.00,WeatherDisplay:10.37,2013-12-24 05:54:00,
2013-12-24 00:55:00,28.1,23.6,30.30,WSW,253,0.0,0.0,83,0.00,CLR,,0.00,WeatherDisplay:10.37,2013-12-24 05:55:00,
2013-12-24 00:57:00,28.1,23.6,30.30,West,264,0.0,0.0,83,0.00,CLR,,0.00,WeatherDisplay:10.37,2013-12-24 05:57:00,
2013-12-24 00:58:00,28.1,23.6,30.30,West,264,0.0,0.0,83,0.00,CLR,,0.00,WeatherDisplay:10.37,2013-12-24 05:58:00,
2013-12-24 00:59:00,28.1,23.6,30.30,West,271,1.1,0.0,83,0.00,CLR,,0.00,WeatherDisplay:10.37,2013-12-24 05:59:00,
2013-12-24 01:00:00,28.1,23.6,30.30,West,271,1.1,0.0,83,0.00,CLR,,0.00,WeatherDisplay:10.37,2013-12-24 06:00:00,
2013-12-24 01:03:00,27.9,23.4,30.30,West,271,1.1,0.0,83,0.00,CLR,,0.00,WeatherDisplay:10.37,2013-12-24 06:03:00,
2013-12-24 01:04:00,27.9,23.4,30.30,West,271,0.0,0.0,83,0.00,CLR,,0.00,WeatherDisplay:10.37,2013-12-24 06:04:00,
2013-12-24 01:05:00,27.9,23.7,30.30,West,271,0.0,0.0,84,0.00,CLR,,0.00,WeatherDisplay:10.37,2013-12-24 06:05:00,
2013-12-24 01:08:00,28.1,23.9,30.30,West,271,0.0,0.0,84,0.00,CLR,,0.00,WeatherDisplay:10.37,2013-12-24 06:08:00,
2013-12-24 01:10:00,28.1,24.2,30.30,West,271,0.0,0.0,85,0.00,CLR,,0.00,WeatherDisplay:10.37,2013-12-24 06:10:00,
2013-12-24 01:11:00,28.1,24.2,30.30,West,271,0.0,0.0,85,0.00,CLR,,0.00,WeatherDisplay:10.37,2013-12-24 06:11:00,
2013-12-24 01:13:00,28.1,24.5,30.30,West,261,0.0,0.1,86,0.00,CLR,,0.00,WeatherDisplay:10.37,2013-12-24 06:13:00,
2013-12-24 01:15:00,28.1,24.5,30.30,West,261,0.0,0.0,86,0.00,CLR,,0.00,WeatherDisplay:10.37,2013-12-24 06:15:00,
2013-12-24 01:16:00,28.1,24.5,30.30,West,261,0.0,0.0,86,0.00,CLR,,0.00,WeatherDisplay:10.37,2013-12-24 06:16:00,
2013-12-24 01:18:00,28.1,24.5,30.30,West,261,0.0,0.0,86,0.00,CLR,,0.00,WeatherDisplay:10.37,2013-12-24 06:18:00,
2013-12-24 01:19:00,28.1,24.5,30.30,West,261,0.0,0.0,86,0.00,CLR,,0.00,WeatherDisplay:10.37,2013-12-24 06:19:00,
2013-12-24 01:20:00,28.1,24.7,30.30,West,261,0.0,0.0,87,0.00,CLR,,0.00,WeatherDisplay:10.37,2013-12-24 06:20:00,
2013-12-24 01:21:00,28.1,24.7,30.30,West,261,0.0,0.0,87,0.00,CLR,,0.00,WeatherDisplay:10.37,2013-12-24 06:21:00,
2013-12-24 01:24:00,28.1,24.7,30.30,West,261,0.0,0.0,87,0.00,CLR,,0.00,WeatherDisplay:10.37,2013-12-24 06:24:00,
2013-12-24 01:25:00,28.1,25.0,30.30,West,261,0.0,0.0,88,0.00,CLR,,0.00,WeatherDisplay:10.37,2013-12-24 06:25:00,
2013-12-24 01:26:00,28.1,25.0,30.30,West,261,0.0,0.0,88,0.00,CLR,,0.00,WeatherDisplay:10.37,2013-12-24 06:26:00,
2013-12-24 01:29:00,28.1,25.0,30.30,West,261,0.0,0.0,88,0.01,RA,,0.01,WeatherDisplay:10.37,2013-12-24 06:29:00,
2013-12-24 01:31:00,28.1,25.3,30.30,West,261,0.0,0.0,89,0.01,RA,,0.01,WeatherDisplay:10.37,2013-12-24 06:31:00,
2013-12-24 01:34:00,28.1,25.0,30.29,West,261,0.0,0.0,88,0.01,RA,,0.01,WeatherDisplay:10.37,2013-12-24 06:34:00,
2013-12-24 01:35:00,28.1,25.0,30.30,SW,223,0.0,0.0,88,0.01,RA,,0.01,WeatherDisplay:10.37,2013-12-24 06:35:00,
2013-12-24 01:36:00,28.1,25.3,30.30,SW,223,0.0,0.0,89,0.02,RA,,0.02,WeatherDisplay:10.37,2013-12-24 06:36:00,
2013-12-24 01:37:00,28.1,25.3,30.29,SW,223,0.0,0.0,89,0.02,RA,,0.02,WeatherDisplay:10.37,2013-12-24 06:37:00,
2013-12-24 01:39:00,28.1,25.3,30.29,SW,223,0.0,0.0,89,0.02,RA,,0.02,WeatherDisplay:10.37,2013-12-24 06:39:00,
2013-12-24 01:40:00,28.1,25.3,30.29,SW,223,0.0,0.0,89,0.02,RA,,0.02,WeatherDisplay:10.37,2013-12-24 06:40:00,
2013-12-24 01:42:00,27.9,25.1,30.29,WSW,239,0.0,0.0,89,0.02,RA,,0.02,WeatherDisplay:10.37,2013-12-24 06:42:00,
2013-12-24 01:43:00,27.9,25.1,30.29,WSW,239,0.0,0.0,89,0.02,RA,,0.02,WeatherDisplay:10.37,2013-12-24 06:43:00,
2013-12-24 01:44:00,27.8,25.0,30.29,WSW,257,1.1,0.0,89,0.02,RA,,0.02,WeatherDisplay:10.37,2013-12-24 06:44:00,
2013-12-24 01:45:00,27.8,25.0,30.29,WSW,254,9.0,9.0,89,0.02,RA,,0.02,WeatherDisplay:10.37,2013-12-24 06:45:00,
2013-12-24 01:47:00,27.6,24.8,30.29,WSW,248,1.1,1.1,89,0.02,,,0.02,WeatherDisplay:10.37,2013-12-24 06:47:00,
2013-12-24 01:48:00,27.6,24.8,30.29,WSW,248,1.1,1.1,89,0.02,CLR,,0.02,WeatherDisplay:10.37,2013-12-24 06:48:00,
2013-12-24 01:50:00,27.6,24.8,30.29,WSW,256,1.1,1.1,89,0.02,CLR,,0.02,WeatherDisplay:10.37,2013-12-24 06:50:00,
2013-12-24 01:51:00,27.5,24.7,30.29,WSW,246,6.9,6.9,89,0.02,CLR,,0.02,WeatherDisplay:10.37,2013-12-24 06:51:00,
2013-12-24 01:52:00,27.5,24.7,30.29,WSW,246,5.8,0.0,89,0.02,CLR,,0.02,WeatherDisplay:10.37,2013-12-24 06:52:00,
2013-12-24 01:54:00,27.5,24.7,30.29,SW,232,1.1,0.0,89,0.02,CLR,,0.02,WeatherDisplay:10.37,2013-12-24 06:54:00,
2013-12-24 01:55:00,27.5,24.7,30.29,SW,232,1.1,0.0,89,0.02,CLR,,0.02,WeatherDisplay:10.37,2013-12-24 06:55:00,
2013-12-24 01:56:00,27.5,24.7,30.29,SW,230,0.0,0.0,89,0.02,CLR,,0.02,WeatherDisplay:10.37,2013-12-24 06:56:00,
2013-12-24 01:57:00,27.5,25.0,30.29,SW,230,0.0,0.0,90,0.02,CLR,,0.02,WeatherDisplay:10.37,2013-12-24 06:57:00,
2013-12-24 01:58:00,27.5,25.0,30.29,SW,230,0.0,0.0,90,0.02,CLR,,0.02,WeatherDisplay:10.37,2013-12-24 06:58:00,
2013-12-24 01:59:00,27.5,25.0,30.29,West,267,1.0,0.0,90,0.02,CLR,,0.02,WeatherDisplay:10.37,2013-12-24 06:59:00,
2013-12-24 02:00:00,27.5,25.0,30.29,West,268,1.1,1.1,90,0.02,CLR,,0.02,WeatherDisplay:10.37,2013-12-24 07:00:00,
2013-12-24 02:01:00,27.5,25.0,30.29,West,275,1.0,0.0,90,0.02,CLR,,0.02,WeatherDisplay:10.37,2013-12-24 07:01:00,
2013-12-24 02:03:00,27.5,25.0,30.29,West,272,6.9,6.9,90,0.02,CLR,,0.02,WeatherDisplay:10.37,2013-12-24 07:03:00,
2013-12-24 02:04:00,27.3,24.8,30.29,West,271,1.1,1.1,90,0.02,CLR,,0.02,WeatherDisplay:10.37,2013-12-24 07:04:00,
2013-12-24 02:05:00,27.3,24.8,30.29,West,271,1.1,1.1,90,0.02,CLR,,0.02,WeatherDisplay:10.37,2013-12-24 07:05:00,
2013-12-24 02:07:00,27.5,25.0,30.29,West,271,0.0,0.0,90,0.02,CLR,,0.02,WeatherDisplay:10.37,2013-12-24 07:07:00,
2013-12-24 02:08:00,27.5,25.0,30.29,West,264,0.0,0.0,90,0.02,CLR,,0.02,WeatherDisplay:10.37,2013-12-24 07:08:00,
2013-12-24 02:10:00,27.3,24.8,30.29,West,263,1.1,1.1,90,0.02,CLR,,0.02,WeatherDisplay:10.37,2013-12-24 07:10:00,
2013-12-24 02:12:00,27.3,24.8,30.29,West,263,0.0,0.0,90,0.02,CLR,,0.02,WeatherDisplay:10.37,2013-12-24 07:12:00,
2013-12-24 02:13:00,27.3,24.8,30.29,WSW,251,1.1,1.1,90,0.02,CLR,,0.02,WeatherDisplay:10.37,2013-12-24 07:13:00,
2013-12-24 02:15:00,27.3,24.8,30.29,West,268,1.1,1.1,90,0.02,CLR,,0.02,WeatherDisplay:10.37,2013-12-24 07:15:00,
2013-12-24 02:17:00,27.3,24.8,30.29,West,261,0.0,0.0,90,0.02,CLR,,0.02,WeatherDisplay:10.37,2013-12-24 07:17:00,
2013-12-24 02:18:00,27.3,24.8,30.29,West,261,0.0,0.0,90,0.02,CLR,,0.02,WeatherDisplay:10.37,2013-12-24 07:18:00,
2013-12-24 02:19:00,27.3,24.8,30.29,West,278,0.0,0.0,90,0.02,CLR,,0.02,WeatherDisplay:10.37,2013-12-24 07:19:00,
2013-12-24 02:20:00,27.3,24.8,30.29,West,278,0.0,0.0,90,0.02,CLR,,0.02,WeatherDisplay:10.37,2013-12-24 07:20:00,
2013-12-24 02:21:00,27.3,24.8,30.29,West,272,1.0,1.0,90,0.02,CLR,,0.02,WeatherDisplay:10.37,2013-12-24 07:21:00,
2013-12-24 02:22:00,27.3,24.8,30.29,WSW,248,1.1,1.1,90,0.02,CLR,,0.02,WeatherDisplay:10.37,2013-12-24 07:22:00,
2013-12-24 02:23:00,27.3,24.8,30.29,WSW,248,1.1,1.1,90,0.02,CLR,,0.02,WeatherDisplay:10.37,2013-12-24 07:23:00,
2013-12-24 02:24:00,27.3,24.8,30.29,WSW,248,1.1,0.0,90,0.02,CLR,,0.02,WeatherDisplay:10.37,2013-12-24 07:24:00,
2013-12-24 02:25:00,27.2,24.7,30.29,WSW,251,1.1,0.0,90,0.02,CLR,,0.02,WeatherDisplay:10.37,2013-12-24 07:25:00,
2013-12-24 02:26:00,27.2,24.7,30.29,WSW,246,5.0,5.0,90,0.02,CLR,,0.02,WeatherDisplay:10.37,2013-12-24 07:26:00,
2013-12-24 02:27:00,27.2,24.7,30.29,WSW,246,5.8,5.8,90,0.02,CLR,,0.02,WeatherDisplay:10.37,2013-12-24 07:27:00,
2013-12-24 02:28:00,27.2,24.7,30.29,WSW,243,0.0,0.1,90,0.01,CLR,,0.02,WeatherDisplay:10.37,2013-12-24 07:28:00,
2013-12-24 02:29:00,27.2,24.7,30.29,WSW,243,1.1,1.1,90,0.01,CLR,,0.02,WeatherDisplay:10.37,2013-12-24 07:29:00,
2013-12-24 02:30:00,27.2,24.7,30.29,WSW,243,1.1,0.0,90,0.01,CLR,,0.02,WeatherDisplay:10.37,2013-12-24 07:30:00,
2013-12-24 02:32:00,27.2,24.7,30.29,WSW,244,1.1,0.0,90,0.01,CLR,,0.02,WeatherDisplay:10.37,2013-12-24 07:32:00,
2013-12-24 02:33:00,27.2,24.7,30.29,WSW,243,0.0,0.0,90,0.01,CLR,,0.02,WeatherDisplay:10.37,2013-12-24 07:33:00,
2013-12-24 02:34:00,27.2,24.7,30.29,WSW,243,1.0,0.0,90,0.01,CLR,,0.02,WeatherDisplay:10.37,2013-12-24 07:34:00,
2013-12-24 02:35:00,27.0,24.5,30.29,SW,232,8.1,8.1,90,0.00,CLR,,0.02,WeatherDisplay:10.37,2013-12-24 07:35:00,
2013-12-24 02:37:00,27.0,24.5,30.29,WSW,258,1.1,1.1,90,0.00,CLR,,0.02,WeatherDisplay:10.37,2013-12-24 07:37:00,
2013-12-24 02:38:00,27.0,24.5,30.30,West,274,8.1,8.1,90,0.00,CLR,,0.02,WeatherDisplay:10.37,2013-12-24 07:38:00,
2013-12-24 02:39:00,27.0,24.5,30.30,WSW,246,5.0,5.0,90,0.00,CLR,,0.02,WeatherDisplay:10.37,2013-12-24 07:39:00,
2013-12-24 02:40:00,27.0,24.5,30.30,WSW,258,5.8,5.8,90,0.00,CLR,,0.02,WeatherDisplay:10.37,2013-12-24 07:40:00,
2013-12-24 02:41:00,26.9,24.4,30.30,WSW,254,7.0,7.0,90,0.00,CLR,,0.02,WeatherDisplay:10.37,2013-12-24 07:41:00,
2013-12-24 02:42:00,26.9,24.4,30.30,West,280,6.9,6.9,90,0.00,CLR,,0.02,WeatherDisplay:10.37,2013-12-24 07:42:00,
2013-12-24 02:43:00,26.9,24.4,30.30,SW,227,1.1,1.1,90,0.00,CLR,,0.02,WeatherDisplay:10.37,2013-12-24 07:43:00,
2013-12-24 02:44:00,26.9,24.4,30.30,West,274,1.1,1.1,90,0.00,CLR,,0.02,WeatherDisplay:10.37,2013-12-24 07:44:00,
2013-12-24 02:45:00,26.9,24.4,30.30,West,274,1.1,1.1,90,0.00,CLR,,0.02,WeatherDisplay:10.37,2013-12-24 07:45:00,
2013-12-24 02:46:00,26.9,24.4,30.30,West,268,0.0,0.1,90,0.00,CLR,,0.02,WeatherDisplay:10.37,2013-12-24 07:46:00,
2013-12-24 02:47:00,26.9,24.4,30.30,SW,236,1.1,0.0,90,0.00,CLR,,0.02,WeatherDisplay:10.37,2013-12-24 07:47:00,
2013-12-24 02:48:00,26.9,24.4,30.30,SW,236,1.1,0.0,90,0.00,CLR,,0.02,WeatherDisplay:10.37,2013-12-24 07:48:00,
2013-12-24 02:49:00,26.9,24.4,30.30,WSW,257,1.1,1.1,90,0.00,CLR,,0.02,WeatherDisplay:10.37,2013-12-24 07:49:00,
2013-12-24 02:50:00,26.9,24.4,30.30,West,260,1.1,1.1,90,0.00,CLR,,0.02,WeatherDisplay:10.37,2013-12-24 07:50:00,
2013-12-24 02:51:00,26.9,24.4,30.30,WSW,257,1.1,1.1,90,0.00,CLR,,0.02,WeatherDisplay:10.37,2013-12-24 07:51:00,
2013-12-24 02:52:00,26.9,24.4,30.30,WNW,294,1.0,0.0,90,0.00,CLR,,0.02,WeatherDisplay:10.37,2013-12-24 07:52:00,
2013-12-24 02:53:00,26.9,24.4,30.30,WSW,237,6.0,6.0,90,0.00,CLR,,0.02,WeatherDisplay:10.37,2013-12-24 07:53:00,
2013-12-24 02:55:00,26.7,24.2,30.30,WSW,257,1.1,1.1,90,0.00,CLR,,0.02,WeatherDisplay:10.37,2013-12-24 07:55:00,
2013-12-24 02:56:00,26.7,24.2,30.30,WSW,257,5.8,5.8,90,0.00,CLR,,0.02,WeatherDisplay:10.37,2013-12-24 07:56:00,
2013-12-24 02:58:00,26.7,24.2,30.30,WNW,282,8.1,8.1,90,0.00,CLR,,0.02,WeatherDisplay:10.37,2013-12-24 07:58:00,
2013-12-24 03:00:00,26.6,24.1,30.30,West,275,1.1,1.1,90,0.00,CLR,,0.02,WeatherDisplay:10.37,2013-12-24 08:00:00,
2013-12-24 03:02:00,26.7,24.2,30.30,WNW,284,6.9,6.9,90,0.00,CLR,,0.02,WeatherDisplay:10.37,2013-12-24 08:02:00,
2013-12-24 03:03:00,26.6,24.1,30.30,West,271,1.1,1.1,90,0.00,CLR,,0.02,WeatherDisplay:10.37,2013-12-24 08:03:00,
2013-12-24 03:05:00,26.6,24.1,30.30,WNW,287,1.1,2.2,90,0.00,CLR,,0.02,WeatherDisplay:10.37,2013-12-24 08:05:00,
2013-12-24 03:07:00,26.4,23.9,30.30,WSW,253,8.1,8.1,90,0.00,CLR,,0.02,WeatherDisplay:10.37,2013-12-24 08:07:00,
2013-12-24 03:08:00,26.4,23.9,30.30,WNW,282,6.9,6.9,90,0.00,CLR,,0.02,WeatherDisplay:10.37,2013-12-24 08:08:00,
2013-12-24 03:10:00,26.3,23.5,30.30,West,263,1.1,1.1,89,0.00,CLR,,0.02,WeatherDisplay:10.37,2013-12-24 08:10:00,
2013-12-24 03:11:00,26.3,23.5,30.30,West,263,1.1,1.1,89,0.00,CLR,,0.02,WeatherDisplay:10.37,2013-12-24 08:11:00,
2013-12-24 03:12:00,26.3,23.5,30.30,West,263,1.1,0.0,89,0.00,CLR,,0.02,WeatherDisplay:10.37,2013-12-24 08:12:00,
2013-12-24 03:13:00,26.3,23.8,30.30,West,263,0.0,0.0,90,0.00,CLR,,0.02,WeatherDisplay:10.37,2013-12-24 08:13:00,
2013-12-24 03:14:00,26.3,23.8,30.30,West,263,0.0,0.1,90,0.00,CLR,,0.02,WeatherDisplay:10.37,2013-12-24 08:14:00,
2013-12-24 03:16:00,26.3,23.5,30.30,West,277,1.1,0.0,89,0.00,CLR,,0.02,WeatherDisplay:10.37,2013-12-24 08:16:00,
2013-12-24 03:17:00,26.1,23.6,30.30,West,263,6.0,6.0,90,0.00,CLR,,0.02,WeatherDisplay:10.37,2013-12-24 08:17:00,
2013-12-24 03:18:00,26.1,23.3,30.30,West,261,5.8,5.8,89,0.00,CLR,,0.02,WeatherDisplay:10.37,2013-12-24 08:18:00,
2013-12-24 03:19:00,26.1,23.3,30.30,WSW,247,6.9,6.9,89,0.00,CLR,,0.02,WeatherDisplay:10.37,2013-12-24 08:19:00,
2013-12-24 03:21:00,26.1,23.3,30.30,WSW,247,1.1,0.0,89,0.00,CLR,,0.02,WeatherDisplay:10.37,2013-12-24 08:21:00,
2013-12-24 03:22:00,26.1,23.3,30.30,WSW,248,6.0,6.0,89,0.00,CLR,,0.02,WeatherDisplay:10.37,2013-12-24 08:22:00,
2013-12-24 03:24:00,26.1,23.3,30.30,West,277,10.4,10.4,89,0.00,CLR,,0.02,WeatherDisplay:10.37,2013-12-24 08:24:00,
2013-12-24 03:26:00,26.0,23.2,30.30,WSW,254,11.5,11.5,89,0.00,CLR,,0.02,WeatherDisplay:10.37,2013-12-24 08:26:00,
2013-12-24 03:27:00,26.0,23.2,30.30,West,267,8.0,8.0,89,0.00,CLR,,0.02,WeatherDisplay:10.37,2013-12-24 08:27:00,
2013-12-24 03:29:00,26.0,23.2,30.30,WSW,248,6.9,6.9,89,0.00,CLR,,0.02,WeatherDisplay:10.37,2013-12-24 08:29:00,
2013-12-24 03:31:00,25.8,23.0,30.30,SW,236,7.0,7.0,89,0.00,CLR,,0.02,WeatherDisplay:10.37,2013-12-24 08:31:00,
2013-12-24 03:32:00,25.8,23.0,30.30,SW,227,11.5,11.5,89,0.00,CLR,,0.02,WeatherDisplay:10.37,2013-12-24 08:32:00,
2013-12-24 03:33:00,25.8,23.0,30.30,West,271,5.0,5.0,89,0.00,CLR,,0.02,WeatherDisplay:10.37,2013-12-24 08:33:00,
2013-12-24 03:34:00,25.8,23.0,30.30,West,261,8.1,8.1,89,0.00,CLR,,0.02,WeatherDisplay:10.37,2013-12-24 08:34:00,
2013-12-24 03:35:00,25.8,23.0,30.30,West,278,0.0,0.1,89,0.00,CLR,,0.02,WeatherDisplay:10.37,2013-12-24 08:35:00,
2013-12-24 03:36:00,25.8,23.0,30.29,West,275,1.1,0.0,89,0.00,CLR,,0.02,WeatherDisplay:10.37,2013-12-24 08:36:00,
2013-12-24 03:37:00,25.8,23.0,30.30,WSW,243,1.1,1.1,89,0.00,CLR,,0.02,WeatherDisplay:10.37,2013-12-24 08:37:00,
2013-12-24 03:38:00,25.7,22.9,30.30,WSW,247,1.1,1.1,89,0.00,CLR,,0.02,WeatherDisplay:10.37,2013-12-24 08:38:00,
2013-12-24 03:39:00,25.7,22.9,30.29,West,263,8.0,8.0,89,0.00,CLR,,0.02,WeatherDisplay:10.37,2013-12-24 08:39:00,
2013-12-24 03:40:00,25.7,22.9,30.30,West,281,8.1,8.1,89,0.00,CLR,,0.02,WeatherDisplay:10.37,2013-12-24 08:40:00,
2013-12-24 03:42:00,25.7,22.9,30.29,WSW,257,3.5,3.5,89,0.00,CLR,,0.02,WeatherDisplay:10.37,2013-12-24 08:42:00,
2013-12-24 03:43:00,25.7,22.9,30.29,West,275,1.1,1.1,89,0.00,CLR,,0.02,WeatherDisplay:10.37,2013-12-24 08:43:00,
2013-12-24 03:45:00,25.7,22.9,30.29,West,268,8.1,8.1,89,0.00,CLR,,0.02,WeatherDisplay:10.37,2013-12-24 08:45:00,
2013-12-24 03:47:00,25.6,22.8,30.29,WSW,253,8.1,8.1,89,0.00,CLR,,0.02,WeatherDisplay:10.37,2013-12-24 08:47:00,
2013-12-24 03:48:00,25.6,22.8,30.29,WNW,282,8.1,8.1,89,0.00,CLR,,0.02,WeatherDisplay:10.37,2013-12-24 08:48:00,
2013-12-24 03:50:00,25.6,22.8,30.29,SW,232,1.0,1.0,89,0.00,CLR,,0.02,WeatherDisplay:10.37,2013-12-24 08:50:00,
2013-12-24 03:51:00,25.6,22.8,30.29,West,263,6.9,6.9,89,0.00,CLR,,0.02,WeatherDisplay:10.37,2013-12-24 08:51:00,
2013-12-24 03:52:00,25.6,22.8,30.29,SW,229,11.5,11.5,89,0.00,CLR,,0.02,WeatherDisplay:10.37,2013-12-24 08:52:00,
2013-12-24 03:53:00,25.6,22.8,30.29,WSW,253,11.5,11.5,89,0.00,CLR,,0.02,WeatherDisplay:10.37,2013-12-24 08:53:00,
2013-12-24 03:55:00,25.6,22.8,30.29,WSW,253,1.1,1.9,89,0.00,CLR,,0.02,WeatherDisplay:10.37,2013-12-24 08:55:00,
2013-12-24 03:56:00,25.4,22.6,30.29,WSW,248,10.4,10.4,89,0.00,CLR,,0.02,WeatherDisplay:10.37,2013-12-24 08:56:00,
2013-12-24 03:57:00,25.4,22.6,30.29,WSW,257,8.1,8.1,89,0.00,CLR,,0.02,WeatherDisplay:10.37,2013-12-24 08:57:00,
2013-12-24 03:58:00,25.4,22.6,30.29,West,264,8.1,8.1,89,0.00,CLR,,0.02,WeatherDisplay:10.37,2013-12-24 08:58:00,
2013-12-24 03:59:00,25.4,22.6,30.29,WSW,251,1.1,1.1,89,0.00,CLR,,0.02,WeatherDisplay:10.37,2013-12-24 08:59:00,
2013-12-24 04:00:00,25.4,22.9,30.29,West,268,2.3,2.3,90,0.00,CLR,,0.02,WeatherDisplay:10.37,2013-12-24 09:00:00,
2013-12-24 04:02:00,25.4,22.9,30.29,WSW,253,10.4,10.4,90,0.00,CLR,,0.02,WeatherDisplay:10.37,2013-12-24 09:02:00,
2013-12-24 04:03:00,25.4,22.6,30.29,West,260,5.0,5.0,89,0.00,CLR,,0.02,WeatherDisplay:10.37,2013-12-24 09:03:00,
2013-12-24 04:04:00,25.4,22.9,30.29,WSW,258,4.6,4.6,90,0.00,CLR,,0.02,WeatherDisplay:10.37,2013-12-24 09:04:00,
2013-12-24 04:05:00,25.4,22.9,30.29,West,260,1.1,0.0,90,0.00,CLR,,0.02,WeatherDisplay:10.37,2013-12-24 09:05:00,
2013-12-24 04:07:00,25.4,22.9,30.29,WSW,246,9.2,9.2,90,0.00,CLR,,0.02,WeatherDisplay:10.37,2013-12-24 09:07:00,
2013-12-24 04:08:00,25.4,22.9,30.29,West,268,9.2,9.2,90,0.00,CLR,,0.02,WeatherDisplay:10.37,2013-12-24 09:08:00,
2013-12-24 04:09:00,25.4,22.9,30.29,West,264,8.1,8.1,90,0.00,CLR,,0.02,WeatherDisplay:10.37,2013-12-24 09:09:00,
2013-12-24 04:10:00,25.4,22.9,30.29,WSW,243,1.1,1.1,90,0.00,CLR,,0.02,WeatherDisplay:10.37,2013-12-24 09:10:00,
2013-12-24 04:13:00,25.4,22.9,30.29,West,265,4.6,4.6,90,0.00,CLR,,0.02,WeatherDisplay:10.37,2013-12-24 09:13:00,
2013-12-24 04:14:00,25.3,22.8,30.29,West,278,11.5,11.5,90,0.00,CLR,,0.02,WeatherDisplay:10.37,2013-12-24 09:14:00,
2013-12-24 04:16:00,25.3,22.8,30.29,West,264,8.1,8.1,90,0.00,CLR,,0.02,WeatherDisplay:10.37,2013-12-24 09:16:00,
2013-12-24 04:18:00,25.3,22.8,30.29,West,260,8.0,8.0,90,0.00,CLR,,0.02,WeatherDisplay:10.37,2013-12-24 09:18:00,
2013-12-24 04:19:00,25.3,22.8,30.29,West,267,11.5,11.5,90,0.00,CLR,,0.02,WeatherDisplay:10.37,2013-12-24 09:19:00,
2013-12-24 04:21:00,25.3,22.8,30.29,West,260,1.1,1.1,90,0.00,CLR,,0.02,WeatherDisplay:10.37,2013-12-24 09:21:00,
2013-12-24 04:22:00,25.3,22.8,30.29,WSW,256,6.9,6.9,90,0.00,CLR,,0.02,WeatherDisplay:10.37,2013-12-24 09:22:00,
2013-12-24 04:23:00,25.3,22.8,30.29,West,278,8.1,8.1,90,0.00,CLR,,0.02,WeatherDisplay:10.37,2013-12-24 09:23:00,
2013-12-24 04:24:00,25.3,22.8,30.29,West,263,1.1,1.1,90,0.00,CLR,,0.02,WeatherDisplay:10.37,2013-12-24 09:24:00,
2013-12-24 04:26:00,25.3,22.8,30.29,West,264,1.1,1.1,90,0.00,CLR,,0.02,WeatherDisplay:10.37,2013-12-24 09:26:00,
2013-12-24 04:27:00,25.3,22.8,30.29,WSW,256,1.1,1.7,90,0.00,CLR,,0.02,WeatherDisplay:10.37,2013-12-24 09:27:00,
2013-12-24 04:28:00,25.1,22.6,30.29,West,268,5.8,5.8,90,0.00,CLR,,0.02,WeatherDisplay:10.37,2013-12-24 09:28:00,
2013-12-24 04:29:00,25.1,22.6,30.29,West,267,1.1,1.1,90,0.00,CLR,,0.02,WeatherDisplay:10.37,2013-12-24 09:29:00,
2013-12-24 04:30:00,25.1,22.6,30.29,West,271,1.1,1.1,90,0.00,CLR,,0.02,WeatherDisplay:10.37,2013-12-24 09:30:00,
2013-12-24 04:31:00,25.1,22.6,30.29,WSW,256,1.1,1.1,90,0.00,CLR,,0.02,WeatherDisplay:10.37,2013-12-24 09:31:00,
2013-12-24 04:33:00,25.1,22.6,30.28,West,268,1.1,0.0,90,0.00,CLR,,0.02,WeatherDisplay:10.37,2013-12-24 09:33:00,
2013-12-24 04:34:00,25.1,22.6,30.28,West,260,10.4,10.4,90,0.00,CLR,,0.02,WeatherDisplay:10.37,2013-12-24 09:34:00,
2013-12-24 04:35:00,25.1,22.6,30.28,West,260,10.4,10.4,90,0.00,CLR,,0.02,WeatherDisplay:10.37,2013-12-24 09:35:00,
2013-12-24 04:36:00,25.1,22.6,30.28,SSW,205,10.4,10.4,90,0.00,CLR,,0.02,WeatherDisplay:10.37,2013-12-24 09:36:00,
2013-12-24 04:38:00,25.0,22.5,30.28,WSW,248,10.4,10.4,90,0.00,CLR,,0.02,WeatherDisplay:10.37,2013-12-24 09:38:00,
2013-12-24 04:39:00,25.0,22.5,30.28,West,274,11.5,11.5,90,0.00,CLR,,0.02,WeatherDisplay:10.37,2013-12-24 09:39:00,
2013-12-24 04:40:00,25.0,22.5,30.28,West,265,11.5,11.5,90,0.00,CLR,,0.02,WeatherDisplay:10.37,2013-12-24 09:40:00,
2013-12-24 04:41:00,25.0,22.5,30.28,WSW,258,11.5,11.5,90,0.00,CLR,,0.02,WeatherDisplay:10.37,2013-12-24 09:41:00,
2013-12-24 04:44:00,25.0,22.5,30.28,West,260,1.1,0.0,90,0.00,CLR,,0.02,WeatherDisplay:10.37,2013-12-24 09:44:00,
2013-12-24 04:45:00,25.0,22.5,30.28,West,272,5.0,5.0,90,0.00,CLR,,0.02,WeatherDisplay:10.37,2013-12-24 09:45:00,
2013-12-24 04:46:00,25.0,22.5,30.28,West,280,8.1,8.1,90,0.00,CLR,,0.02,WeatherDisplay:10.37,2013-12-24 09:46:00,
2013-12-24 04:49:00,25.0,22.5,30.28,West,281,1.1,2.9,90,0.00,CLR,,0.02,WeatherDisplay:10.37,2013-12-24 09:49:00,
2013-12-24 04:50:00,25.0,22.5,30.28,West,281,6.9,6.9,90,0.00,CLR,,0.02,WeatherDisplay:10.37,2013-12-24 09:50:00,
2013-12-24 04:51:00,25.0,22.5,30.28,WSW,239,0.0,0.0,90,0.00,CLR,,0.02,WeatherDisplay:10.37,2013-12-24 09:51:00,
2013-12-24 04:54:00,25.0,22.5,30.28,WSW,256,5.8,5.8,90,0.00,CLR,,0.02,WeatherDisplay:10.37,2013-12-24 09:54:00,
2013-12-24 04:55:00,24.8,22.3,30.28,WSW,256,5.8,5.8,90,0.00,CLR,,0.02,WeatherDisplay:10.37,2013-12-24 09:55:00,
2013-12-24 04:56:00,24.8,22.3,30.28,WSW,257,2.0,2.0,90,0.00,CLR,,0.02,WeatherDisplay:10.37,2013-12-24 09:56:00,
2013-12-24 04:59:00,24.8,22.3,30.28,West,268,10.4,10.4,90,0.00,CLR,,0.02,WeatherDisplay:10.37,2013-12-24 09:59:00,
2013-12-24 05:00:00,24.8,22.3,30.28,WSW,254,11.5,11.5,90,0.00,CLR,,0.02,WeatherDisplay:10.37,2013-12-24 10:00:00,
2013-12-24 05:01:00,24.7,22.2,30.28,West,264,12.7,12.7,90,0.00,CLR,,0.02,WeatherDisplay:10.37,2013-12-24 10:01:00,
2013-12-24 05:04:00,24.7,22.2,30.28,West,272,8.1,8.1,90,0.00,CLR,,0.02,WeatherDisplay:10.37,2013-12-24 10:04:00,
2013-12-24 05:05:00,24.7,22.2,30.28,WNW,282,16.0,16.0,90,0.00,CLR,,0.02,WeatherDisplay:10.37,2013-12-24 10:05:00,
2013-12-24 05:06:00,24.7,22.2,30.28,WSW,244,16.1,16.1,90,0.00,CLR,,0.02,WeatherDisplay:10.37,2013-12-24 10:06:00,
2013-12-24 05:07:00,24.7,22.2,30.28,WSW,251,11.5,11.5,90,0.00,CLR,,0.02,WeatherDisplay:10.37,2013-12-24 10:07:00,
2013-12-24 05:09:00,24.7,22.2,30.28,West,270,13.8,13.8,90,0.00,CLR,,0.02,WeatherDisplay:10.37,2013-12-24 10:09:00,
2013-12-24 05:10:00,24.7,22.2,30.28,WSW,239,10.4,10.4,90,0.00,CLR,,0.02,WeatherDisplay:10.37,2013-12-24 10:10:00,
2013-12-24 05:11:00,24.7,22.4,30.28,WSW,239,1.1,1.1,91,0.00,CLR,,0.02,WeatherDisplay:10.37,2013-12-24 10:11:00,
2013-12-24 05:12:00,24.5,22.2,30.28,West,274,9.0,9.0,91,0.00,CLR,,0.02,WeatherDisplay:10.37,2013-12-24 10:12:00,
2013-12-24 05:15:00,24.5,22.2,30.28,West,264,1.1,1.1,91,0.00,CLR,,0.02,WeatherDisplay:10.37,2013-12-24 10:15:00,
2013-12-24 05:16:00,24.5,22.2,30.28,West,275,6.0,6.0,91,0.00,CLR,,0.02,WeatherDisplay:10.37,2013-12-24 10:16:00,
2013-12-24 05:17:00,24.5,22.2,30.28,WSW,253,10.0,10.0,91,0.00,CLR,,0.02,WeatherDisplay:10.37,2013-12-24 10:17:00,
2013-12-24 05:18:00,24.5,22.2,30.28,WSW,247,8.1,8.1,91,0.00,CLR,,0.02,WeatherDisplay:10.37,2013-12-24 10:18:00,
2013-12-24 05:20:00,24.5,22.2,30.28,WSW,253,6.9,6.9,91,0.00,CLR,,0.02,WeatherDisplay:10.37,2013-12-24 10:20:00,
2013-12-24 05:22:00,24.5,22.2,30.28,WSW,247,10.4,10.4,91,0.00,CLR,,0.02,WeatherDisplay:10.37,2013-12-24 10:22:00,
2013-12-24 05:23:00,24.5,22.2,30.28,WSW,247,4.6,4.6,91,0.00,CLR,,0.02,WeatherDisplay:10.37,2013-12-24 10:23:00,
2013-12-24 05:24:00,24.5,22.2,30.28,WSW,247,0.0,0.0,91,0.00,CLR,,0.02,WeatherDisplay:10.37,2013-12-24 10:24:00,
2013-12-24 05:25:00,24.5,22.2,30.28,West,270,6.9,6.9,91,0.00,CLR,,0.02,WeatherDisplay:10.37,2013-12-24 10:25:00,
2013-12-24 05:27:00,24.5,22.5,30.28,West,281,3.5,3.5,92,0.00,CLR,,0.02,WeatherDisplay:10.37,2013-12-24 10:27:00,
2013-12-24 05:28:00,24.5,22.5,30.28,West,274,3.5,3.5,92,0.00,CLR,,0.02,WeatherDisplay:10.37,2013-12-24 10:28:00,
2013-12-24 05:29:00,24.5,22.5,30.28,WNW,282,4.6,4.6,92,0.00,CLR,,0.02,WeatherDisplay:10.37,2013-12-24 10:29:00,
2013-12-24 05:30:00,24.5,22.5,30.28,WSW,258,4.6,4.6,92,0.00,CLR,,0.02,WeatherDisplay:10.37,2013-12-24 10:30:00,
2013-12-24 05:32:00,24.5,22.5,30.28,West,277,1.1,0.0,92,0.00,CLR,,0.02,WeatherDisplay:10.37,2013-12-24 10:32:00,
2013-12-24 05:33:00,24.5,22.5,30.28,West,270,1.1,1.1,92,0.00,CLR,,0.03,WeatherDisplay:10.37,2013-12-24 10:33:00,
2013-12-24 05:34:00,24.5,22.5,30.29,West,261,1.1,1.1,92,0.01,RA,,0.03,WeatherDisplay:10.37,2013-12-24 10:34:00,
2013-12-24 05:35:00,24.5,22.5,30.29,West,261,7.0,7.0,92,0.01,RA,,0.03,WeatherDisplay:10.37,2013-12-24 10:35:00,
2013-12-24 05:38:00,24.5,22.5,30.29,West,263,1.1,1.1,92,0.01,RA,,0.03,WeatherDisplay:10.37,2013-12-24 10:38:00,
2013-12-24 05:40:00,24.5,22.5,30.29,WSW,256,5.0,5.0,92,0.01,RA,,0.03,WeatherDisplay:10.37,2013-12-24 10:40:00,
2013-12-24 05:43:00,24.4,22.4,30.29,WNW,287,11.5,11.5,92,0.01,RA,,0.03,WeatherDisplay:10.37,2013-12-24 10:43:00,
2013-12-24 05:45:00,24.4,22.4,30.29,SW,236,8.1,8.1,92,0.01,,,0.03,WeatherDisplay:10.37,2013-12-24 10:45:00,
2013-12-24 05:48:00,24.4,22.7,30.29,West,263,9.2,9.2,93,0.01,CLR,,0.03,WeatherDisplay:10.37,2013-12-24 10:48:00,
2013-12-24 05:50:00,24.2,22.5,30.29,WNW,287,5.8,5.8,93,0.02,RA,,0.04,WeatherDisplay:10.37,2013-12-24 10:50:00,
2013-12-24 05:54:00,24.1,22.6,30.29,West,275,3.5,3.5,94,0.02,RA,,0.04,WeatherDisplay:10.37,2013-12-24 10:54:00,
2013-12-24 05:55:00,24.1,22.6,30.29,NNW,335,12.7,12.7,94,0.02,RA,,0.04,WeatherDisplay:10.37,2013-12-24 10:55:00,
2013-12-24 05:56:00,24.1,22.6,30.29,WSW,251,12.7,12.7,94,0.02,RA,,0.04,WeatherDisplay:10.37,2013-12-24 10:56:00,
2013-12-24 05:59:00,23.9,22.7,30.29,WSW,248,11.0,11.0,95,0.03,RA,,0.05,WeatherDisplay:10.37,2013-12-24 10:59:00,
2013-12-24 06:00:00,23.9,22.7,30.29,WNW,284,11.0,11.0,95,0.03,RA,,0.05,WeatherDisplay:10.37,2013-12-24 11:00:00,
2013-12-24 06:01:00,23.9,22.7,30.29,West,263,12.7,12.7,95,0.03,RA,,0.05,WeatherDisplay:10.37,2013-12-24 11:01:00,
2013-12-24 06:02:00,23.9,22.7,30.29,West,274,11.5,11.5,95,0.03,RA,,0.05,WeatherDisplay:10.37,2013-12-24 11:02:00,
2013-12-24 06:04:00,23.9,22.7,30.29,West,281,10.4,10.4,95,0.03,RA,,0.05,WeatherDisplay:10.37,2013-12-24 11:04:00,
2013-12-24 06:05:00,23.9,22.7,30.29,WNW,292,10.4,10.4,95,0.03,RA,,0.05,WeatherDisplay:10.37,2013-12-24 11:05:00,
2013-12-24 06:06:00,23.9,22.7,30.29,WSW,251,10.4,10.4,95,0.03,RA,,0.05,WeatherDisplay:10.37,2013-12-24 11:06:00,
2013-12-24 06:07:00,23.9,22.7,30.29,West,275,8.1,8.1,95,0.03,RA,,0.05,WeatherDisplay:10.37,2013-12-24 11:07:00,
2013-12-24 06:09:00,23.9,22.9,30.29,West,278,11.5,11.5,96,0.03,CLR,,0.05,WeatherDisplay:10.37,2013-12-24 11:09:00,
2013-12-24 06:10:00,24.1,23.1,30.29,West,278,11.5,11.5,96,0.03,CLR,,0.05,WeatherDisplay:10.37,2013-12-24 11:10:00,
2013-12-24 06:11:00,24.1,23.1,30.29,West,267,5.8,5.8,96,0.03,CLR,,0.05,WeatherDisplay:10.37,2013-12-24 11:11:00,
2013-12-24 06:13:00,24.1,23.1,30.29,NW,316,1.1,1.1,96,0.03,CLR,,0.05,WeatherDisplay:10.37,2013-12-24 11:13:00,
2013-12-24 06:15:00,24.1,23.1,30.29,West,278,6.9,6.9,96,0.04,RA,,0.06,WeatherDisplay:10.37,2013-12-24 11:15:00,
2013-12-24 06:16:00,24.1,23.1,30.29,West,277,1.1,1.1,96,0.04,RA,,0.06,WeatherDisplay:10.37,2013-12-24 11:16:00,
2013-12-24 06:17:00,24.1,23.1,30.29,NW,308,12.7,12.7,96,0.04,RA,,0.06,WeatherDisplay:10.37,2013-12-24 11:17:00,
2013-12-24 06:19:00,24.1,23.1,30.29,West,278,12.7,12.7,96,0.04,RA,,0.06,WeatherDisplay:10.37,2013-12-24 11:19:00,
2013-12-24 06:20:00,24.1,23.1,30.29,WNW,299,12.7,12.7,96,0.04,RA,,0.06,WeatherDisplay:10.37,2013-12-24 11:20:00,
2013-12-24 06:21:00,24.1,23.1,30.29,West,271,8.0,8.0,96,0.04,RA,,0.06,WeatherDisplay:10.37,2013-12-24 11:21:00,
2013-12-24 06:22:00,24.1,23.1,30.29,WNW,295,8.1,8.1,96,0.05,RA,,0.07,WeatherDisplay:10.37,2013-12-24 11:22:00,
2013-12-24 06:23:00,24.1,23.1,30.29,NW,320,11.5,11.5,96,0.05,RA,,0.07,WeatherDisplay:10.37,2013-12-24 11:23:00,
2013-12-24 06:25:00,24.1,23.1,30.29,WNW,292,11.5,11.5,96,0.05,RA,,0.07,WeatherDisplay:10.37,2013-12-24 11:25:00,
2013-12-24 06:26:00,24.1,23.1,30.29,WNW,302,11.5,11.5,96,0.05,RA,,0.07,WeatherDisplay:10.37,2013-12-24 11:26:00,
2013-12-24 06:27:00,24.1,23.1,30.29,WNW,296,11.5,11.5,96,0.05,RA,,0.07,WeatherDisplay:10.37,2013-12-24 11:27:00,
2013-12-24 06:28:00,24.1,23.1,30.29,NNW,335,5.8,5.8,96,0.05,RA,,0.07,WeatherDisplay:10.37,2013-12-24 11:28:00,
2013-12-24 06:30:00,24.1,23.1,30.30,WSW,248,16.1,16.1,96,0.05,RA,,0.07,WeatherDisplay:10.37,2013-12-24 11:30:00,
2013-12-24 06:32:00,24.1,23.1,30.29,WNW,291,6.9,6.9,96,0.05,,,0.07,WeatherDisplay:10.37,2013-12-24 11:32:00,
2013-12-24 06:33:00,24.1,23.1,30.30,West,280,6.9,6.9,96,0.05,,,0.07,WeatherDisplay:10.37,2013-12-24 11:33:00,
2013-12-24 06:36:00,24.1,23.1,30.30,WNW,296,11.0,11.0,96,0.05,RA,,0.08,WeatherDisplay:10.37,2013-12-24 11:36:00,
2013-12-24 06:37:00,24.1,23.1,30.30,West,270,11.5,11.5,96,0.05,RA,,0.08,WeatherDisplay:10.37,2013-12-24 11:37:00,
2013-12-24 06:38:00,23.9,22.9,30.30,WNW,301,12.0,12.0,96,0.05,RA,,0.08,WeatherDisplay:10.37,2013-12-24 11:38:00,
2013-12-24 06:41:00,23.9,22.9,30.30,WNW,292,6.9,6.9,96,0.05,RA,,0.08,WeatherDisplay:10.37,2013-12-24 11:41:00,
2013-12-24 06:42:00,23.9,22.9,30.30,WNW,282,6.9,6.9,96,0.05,RA,,0.08,WeatherDisplay:10.37,2013-12-24 11:42:00,
2013-12-24 06:43:00,23.9,22.9,30.30,WNW,282,3.5,3.5,96,0.05,RA,,0.08,WeatherDisplay:10.37,2013-12-24 11:43:00,
2013-12-24 06:46:00,23.9,22.9,30.30,WSW,246,11.5,11.5,96,0.05,CLR,,0.08,WeatherDisplay:10.37,2013-12-24 11:46:00,
2013-12-24 06:47:00,23.9,22.9,30.30,NW,305,11.5,11.5,96,0.05,CLR,,0.08,WeatherDisplay:10.37,2013-12-24 11:47:00,
2013-12-24 06:48:00,23.8,22.8,30.30,West,277,10.4,10.4,96,0.05,CLR,,0.08,WeatherDisplay:10.37,2013-12-24 11:48:00,
2013-12-24 06:49:00,23.8,22.8,30.30,WNW,295,11.5,11.5,96,0.05,CLR,,0.08,WeatherDisplay:10.37,2013-12-24 11:49:00,
2013-12-24 06:52:00,23.8,22.8,30.30,WNW,301,12.7,12.7,96,0.04,CLR,,0.08,WeatherDisplay:10.37,2013-12-24 11:52:00,
2013-12-24 06:53:00,23.8,22.8,30.30,West,271,12.7,12.7,96,0.04,CLR,,0.08,WeatherDisplay:10.37,2013-12-24 11:53:00,
2013-12-24 06:54:00,23.8,22.8,30.31,WNW,288,11.5,11.5,96,0.04,CLR,,0.08,WeatherDisplay:10.37,2013-12-24 11:54:00,
2013-12-24 06:57:00,23.6,22.6,30.30,WNW,295,16.1,16.1,96,0.04,CLR,,0.08,WeatherDisplay:10.37,2013-12-24 11:57:00,
2013-12-24 06:58:00,23.5,22.5,30.30,WNW,302,11.5,11.5,96,0.03,CLR,,0.08,WeatherDisplay:10.37,2013-12-24 11:58:00,
2013-12-24 06:59:00,23.5,22.5,30.30,West,278,9.2,9.2,96,0.03,CLR,,0.08,WeatherDisplay:10.37,2013-12-24 11:59:00,
2013-12-24 07:00:00,23.5,22.5,30.30,WNW,295,5.8,5.8,96,0.03,CLR,,0.08,WeatherDisplay:10.37,2013-12-24 12:00:00,
2013-12-24 07:02:00,23.3,22.3,30.30,NNW,335,12.7,12.7,96,0.04,RA,,0.09,WeatherDisplay:10.37,2013-12-24 12:02:00,
2013-12-24 07:03:00,23.3,22.3,30.31,NW,305,11.5,11.5,96,0.04,RA,,0.09,WeatherDisplay:10.37,2013-12-24 12:03:00,
2013-12-24 07:04:00,23.3,22.3,30.31,NW,304,12.0,12.0,96,0.04,RA,,0.09,WeatherDisplay:10.37,2013-12-24 12:04:00,
2013-12-24 07:05:00,23.3,22.3,30.31,West,277,12.7,12.7,96,0.04,RA,,0.09,WeatherDisplay:10.37,2013-12-24 12:05:00,
2013-12-24 07:07:00,23.2,22.2,30.31,West,261,11.5,11.5,96,0.04,RA,,0.09,WeatherDisplay:10.37,2013-12-24 12:07:00,
2013-12-24 07:09:00,23.2,22.2,30.31,WSW,239,13.8,13.8,96,0.04,RA,,0.09,WeatherDisplay:10.37,2013-12-24 12:09:00,
2013-12-24 07:10:00,23.0,22.0,30.30,WNW,287,11.5,11.5,96,0.04,RA,,0.09,WeatherDisplay:10.37,2013-12-24 12:10:00,
2013-12-24 07:12:00,23.0,22.0,30.30,NW,306,11.5,11.5,96,0.04,,,0.09,WeatherDisplay:10.37,2013-12-24 12:12:00,
2013-12-24 07:14:00,23.0,22.0,30.30,NW,319,12.7,12.7,96,0.04,CLR,,0.09,WeatherDisplay:10.37,2013-12-24 12:14:00,
2013-12-24 07:15:00,23.0,22.0,30.31,WNW,288,13.8,13.8,96,0.03,CLR,,0.09,WeatherDisplay:10.37,2013-12-24 12:15:00,
2013-12-24 07:17:00,22.9,21.9,30.31,WNW,282,12.0,12.0,96,0.03,CLR,,0.09,WeatherDisplay:10.37,2013-12-24 12:17:00,
2013-12-24 07:19:00,22.9,21.9,30.31,WSW,246,11.5,11.5,96,0.03,CLR,,0.09,WeatherDisplay:10.37,2013-12-24 12:19:00,
2013-12-24 07:20:00,22.9,21.7,30.31,NW,312,11.5,11.5,95,0.03,CLR,,0.09,WeatherDisplay:10.37,2013-12-24 12:20:00,
2013-12-24 07:21:00,22.9,21.7,30.31,NW,326,8.1,8.1,95,0.03,CLR,,0.09,WeatherDisplay:10.37,2013-12-24 12:21:00,
2013-12-24 07:23:00,22.7,21.5,30.30,WNW,282,12.7,12.7,95,0.02,CLR,,0.09,WeatherDisplay:10.37,2013-12-24 12:23:00,
2013-12-24 07:24:00,22.7,21.5,30.31,WSW,250,11.5,11.5,95,0.02,CLR,,0.09,WeatherDisplay:10.37,2013-12-24 12:24:00,
2013-12-24 07:26:00,22.7,21.5,30.31,West,272,8.1,8.1,95,0.02,CLR,,0.09,WeatherDisplay:10.37,2013-12-24 12:26:00,
2013-12-24 07:28:00,22.7,21.5,30.31,NW,323,9.0,9.0,95,0.02,CLR,,0.09,WeatherDisplay:10.37,2013-12-24 12:28:00,
2013-12-24 07:29:00,22.7,21.5,30.31,WNW,285,10.4,10.4,95,0.02,CLR,,0.09,WeatherDisplay:10.37,2013-12-24 12:29:00,
2013-12-24 07:30:00,22.7,21.5,30.31,NW,308,11.5,11.5,95,0.02,CLR,,0.09,WeatherDisplay:10.37,2013-12-24 12:30:00,
2013-12-24 07:31:00,22.7,21.5,30.31,West,278,10.4,10.4,95,0.02,CLR,,0.09,WeatherDisplay:10.37,2013-12-24 12:31:00,
2013-12-24 07:32:00,22.7,21.2,30.31,West,277,11.0,11.0,94,0.02,CLR,,0.09,WeatherDisplay:10.37,2013-12-24 12:32:00,
2013-12-24 07:33:00,22.7,21.2,30.31,NNW,339,13.8,13.8,94,0.02,CLR,,0.09,WeatherDisplay:10.37,2013-12-24 12:33:00,
2013-12-24 07:34:00,22.5,21.0,30.31,West,278,16.1,16.1,94,0.01,CLR,,0.09,WeatherDisplay:10.37,2013-12-24 12:34:00,
2013-12-24 07:35:00,22.5,21.0,30.31,West,272,16.1,16.1,94,0.01,CLR,,0.09,WeatherDisplay:10.37,2013-12-24 12:35:00,
2013-12-24 07:36:00,22.5,21.0,30.31,WSW,253,11.5,11.5,94,0.01,CLR,,0.09,WeatherDisplay:10.37,2013-12-24 12:36:00,
2013-12-24 07:37:00,22.4,20.7,30.31,West,267,10.4,10.4,93,0.01,CLR,,0.09,WeatherDisplay:10.37,2013-12-24 12:37:00,
2013-12-24 07:39:00,22.4,20.7,30.31,SW,233,11.5,11.5,93,0.01,CLR,,0.09,WeatherDisplay:10.37,2013-12-24 12:39:00,
2013-12-24 07:40:00,22.4,20.7,30.31,WNW,285,8.1,8.1,93,0.01,CLR,,0.09,WeatherDisplay:10.37,2013-12-24 12:40:00,
2013-12-24 07:41:00,22.4,20.7,30.31,West,263,10.0,10.0,93,0.01,CLR,,0.09,WeatherDisplay:10.37,2013-12-24 12:41:00,
2013-12-24 07:42:00,22.2,20.5,30.31,West,261,14.0,14.0,93,0.01,CLR,,0.09,WeatherDisplay:10.37,2013-12-24 12:42:00,
2013-12-24 07:43:00,22.2,20.5,30.31,West,264,13.8,13.8,93,0.01,CLR,,0.09,WeatherDisplay:10.37,2013-12-24 12:43:00,
2013-12-24 07:44:00,22.2,20.2,30.31,West,280,12.7,12.7,92,0.01,CLR,,0.09,WeatherDisplay:10.37,2013-12-24 12:44:00,
2013-12-24 07:45:00,22.1,20.1,30.31,West,268,12.0,12.0,92,0.01,CLR,,0.09,WeatherDisplay:10.37,2013-12-24 12:45:00,
2013-12-24 07:47:00,22.1,20.1,30.31,WNW,295,11.5,11.5,92,0.01,CLR,,0.09,WeatherDisplay:10.37,2013-12-24 12:47:00,
2013-12-24 07:48:00,22.1,20.1,30.31,West,278,8.1,8.1,92,0.01,CLR,,0.09,WeatherDisplay:10.37,2013-12-24 12:48:00,
2013-12-24 07:50:00,22.1,20.1,30.31,West,277,8.0,8.0,92,0.01,CLR,,0.09,WeatherDisplay:10.37,2013-12-24 12:50:00,
2013-12-24 07:51:00,21.9,19.9,30.31,West,274,11.5,11.5,92,0.01,CLR,,0.09,WeatherDisplay:10.37,2013-12-24 12:51:00,
2013-12-24 07:52:00,21.9,19.9,30.31,West,268,6.9,6.9,92,0.01,CLR,,0.09,WeatherDisplay:10.37,2013-12-24 12:52:00,
2013-12-24 07:53:00,21.9,19.7,30.31,West,271,8.1,8.1,91,0.01,CLR,,0.09,WeatherDisplay:10.37,2013-12-24 12:53:00,
2013-12-24 07:54:00,21.9,19.7,30.31,WNW,285,0.0,0.0,91,0.01,CLR,,0.09,WeatherDisplay:10.37,2013-12-24 12:54:00,
2013-12-24 07:55:00,21.9,19.7,30.31,West,281,8.0,8.0,91,0.01,CLR,,0.09,WeatherDisplay:10.37,2013-12-24 12:55:00,
2013-12-24 07:56:00,21.9,19.7,30.31,West,268,15.0,15.0,91,0.01,CLR,,0.09,WeatherDisplay:10.37,2013-12-24 12:56:00,
2013-12-24 07:57:00,21.9,19.7,30.31,West,277,15.0,15.0,91,0.01,CLR,,0.09,WeatherDisplay:10.37,2013-12-24 12:57:00,
2013-12-24 07:58:00,21.9,19.7,30.31,West,277,11.5,11.5,91,0.01,CLR,,0.09,WeatherDisplay:10.37,2013-12-24 12:58:00,
2013-12-24 08:00:00,21.9,19.4,30.31,West,277,11.5,11.5,90,0.01,CLR,,0.09,WeatherDisplay:10.37,2013-12-24 13:00:00,
2013-12-24 08:01:00,21.9,19.4,30.31,West,267,10.4,10.4,90,0.01,CLR,,0.09,WeatherDisplay:10.37,2013-12-24 13:01:00,
2013-12-24 08:02:00,21.9,19.4,30.31,West,281,11.5,11.5,90,0.00,CLR,,0.09,WeatherDisplay:10.37,2013-12-24 13:02:00,
2013-12-24 08:04:00,21.9,19.4,30.31,West,264,6.9,6.9,90,0.00,CLR,,0.09,WeatherDisplay:10.37,2013-12-24 13:04:00,
2013-12-24 08:05:00,21.9,19.4,30.31,West,277,13.8,13.8,90,0.00,CLR,,0.09,WeatherDisplay:10.37,2013-12-24 13:05:00,
2013-12-24 08:06:00,21.9,19.2,30.32,West,271,10.4,10.4,89,0.00,CLR,,0.09,WeatherDisplay:10.37,2013-12-24 13:06:00,
2013-12-24 08:07:00,21.9,19.2,30.32,WNW,284,12.0,12.0,89,0.00,CLR,,0.09,WeatherDisplay:10.37,2013-12-24 13:07:00,
2013-12-24 08:09:00,21.9,19.2,30.32,West,277,4.6,4.6,89,0.00,CLR,,0.09,WeatherDisplay:10.37,2013-12-24 13:09:00,
2013-12-24 08:10:00,21.9,19.2,30.32,WNW,282,5.8,5.8,89,0.00,CLR,,0.09,WeatherDisplay:10.37,2013-12-24 13:10:00,
2013-12-24 08:12:00,22.1,19.4,30.32,West,274,10.4,10.4,89,0.00,CLR,,0.09,WeatherDisplay:10.37,2013-12-24 13:12:00,
2013-12-24 08:13:00,22.1,19.4,30.32,WSW,253,11.5,11.5,89,0.00,CLR,,0.09,WeatherDisplay:10.37,2013-12-24 13:13:00,
2013-12-24 08:14:00,22.1,19.1,30.32,WNW,287,13.8,13.8,88,0.00,CLR,,0.09,WeatherDisplay:10.37,2013-12-24 13:14:00,
2013-12-24 08:16:00,22.1,19.1,30.32,West,274,6.9,6.9,88,0.00,CLR,,0.09,WeatherDisplay:10.37,2013-12-24 13:16:00,
2013-12-24 08:17:00,22.1,19.1,30.32,West,275,8.1,8.1,88,0.00,CLR,,0.09,WeatherDisplay:10.37,2013-12-24 13:17:00,
2013-12-24 08:18:00,22.1,19.1,30.32,WNW,301,8.1,8.1,88,0.00,CLR,,0.09,WeatherDisplay:10.37,2013-12-24 13:18:00,
2013-12-24 08:19:00,22.2,19.2,30.32,NW,322,11.5,11.5,88,0.00,CLR,,0.09,WeatherDisplay:10.37,2013-12-24 13:19:00,
2013-12-24 08:21:00,22.2,19.2,30.32,NW,313,8.1,8.1,88,0.00,CLR,,0.09,WeatherDisplay:10.37,2013-12-24 13:21:00,
2013-12-24 08:23:00,22.2,19.2,30.32,NW,313,11.5,11.5,88,0.00,CLR,,0.09,WeatherDisplay:10.37,2013-12-24 13:23:00,
2013-12-24 08:24:00,22.2,19.2,30.33,WNW,284,5.8,5.8,88,0.00,CLR,,0.09,WeatherDisplay:10.37,2013-12-24 13:24:00,
2013-12-24 08:26:00,22.2,19.2,30.33,West,277,8.1,8.1,88,0.00,CLR,,0.09,WeatherDisplay:10.37,2013-12-24 13:26:00,
2013-12-24 08:28:00,22.1,19.1,30.33,NW,313,8.1,8.1,88,0.00,CLR,,0.09,WeatherDisplay:10.37,2013-12-24 13:28:00,
2013-12-24 08:30:00,22.1,19.1,30.33,NW,315,12.7,12.7,88,0.00,CLR,,0.09,WeatherDisplay:10.37,2013-12-24 13:30:00,
2013-12-24 08:31:00,22.1,19.1,30.33,West,281,12.7,12.7,88,0.00,CLR,,0.09,WeatherDisplay:10.37,2013-12-24 13:31:00,
2013-12-24 08:33:00,21.9,19.2,30.33,WNW,292,6.9,6.9,89,0.00,CLR,,0.09,WeatherDisplay:10.37,2013-12-24 13:33:00,
2013-12-24 08:34:00,21.9,19.2,30.33,WNW,292,8.1,8.1,89,0.00,CLR,,0.09,WeatherDisplay:10.37,2013-12-24 13:34:00,
2013-12-24 08:35:00,21.9,19.2,30.33,WNW,294,0.0,0.0,89,0.00,CLR,,0.09,WeatherDisplay:10.37,2013-12-24 13:35:00,
2013-12-24 08:36:00,21.9,19.2,30.33,NW,306,5.0,5.0,89,0.00,CLR,,0.09,WeatherDisplay:10.37,2013-12-24 13:36:00,
2013-12-24 08:38:00,21.9,19.2,30.33,WNW,284,3.0,3.0,89,0.00,CLR,,0.09,WeatherDisplay:10.37,2013-12-24 13:38:00,
2013-12-24 08:39:00,21.9,19.2,30.33,West,272,11.0,11.0,89,0.00,CLR,,0.09,WeatherDisplay:10.37,2013-12-24 13:39:00,
2013-12-24 08:41:00,21.8,19.1,30.33,NW,319,9.2,9.2,89,0.00,CLR,,0.09,WeatherDisplay:10.37,2013-12-24 13:41:00,
2013-12-24 08:42:00,21.8,19.1,30.33,West,274,10.4,10.4,89,0.00,CLR,,0.09,WeatherDisplay:10.37,2013-12-24 13:42:00,
2013-12-24 08:43:00,21.6,18.9,30.33,West,277,11.5,11.5,89,0.00,CLR,,0.09,WeatherDisplay:10.37,2013-12-24 13:43:00,
2013-12-24 08:44:00,21.6,18.9,30.33,WSW,254,9.2,9.2,89,0.00,CLR,,0.09,WeatherDisplay:10.37,2013-12-24 13:44:00,
2013-12-24 08:45:00,21.6,18.9,30.33,West,281,9.2,9.2,89,0.00,CLR,,0.09,WeatherDisplay:10.37,2013-12-24 13:45:00,
2013-12-24 08:46:00,21.6,18.9,30.33,WNW,288,6.9,6.9,89,0.00,CLR,,0.09,WeatherDisplay:10.37,2013-12-24 13:46:00,
2013-12-24 08:47:00,21.6,19.1,30.33,West,281,8.1,8.1,90,0.00,CLR,,0.09,WeatherDisplay:10.37,2013-12-24 13:47:00,
2013-12-24 08:49:00,21.4,18.9,30.33,WNW,295,3.5,3.5,90,0.00,CLR,,0.09,WeatherDisplay:10.37,2013-12-24 13:49:00,
2013-12-24 08:50:00,21.4,18.9,30.33,WNW,291,9.2,9.2,90,0.00,CLR,,0.09,WeatherDisplay:10.37,2013-12-24 13:50:00,
2013-12-24 08:51:00,21.4,18.9,30.33,NW,320,8.1,8.1,90,0.00,CLR,,0.09,WeatherDisplay:10.37,2013-12-24 13:51:00,
2013-12-24 08:52:00,21.4,18.9,30.33,WNW,282,8.1,8.1,90,0.00,CLR,,0.09,WeatherDisplay:10.37,2013-12-24 13:52:00,
2013-12-24 08:54:00,21.4,19.2,30.33,WNW,285,11.5,11.5,91,0.00,CLR,,0.09,WeatherDisplay:10.37,2013-12-24 13:54:00,
2013-12-24 08:55:00,21.4,19.2,30.33,WSW,256,11.5,11.5,91,0.00,CLR,,0.09,WeatherDisplay:10.37,2013-12-24 13:55:00,
2013-12-24 08:56:00,21.4,19.2,30.33,WNW,302,1.1,1.1,91,0.00,CLR,,0.09,WeatherDisplay:10.37,2013-12-24 13:56:00,
2013-12-24 08:57:00,21.4,19.2,30.33,NNW,328,7.0,7.0,91,0.00,CLR,,0.09,WeatherDisplay:10.37,2013-12-24 13:57:00,
2013-12-24 08:58:00,21.4,19.2,30.33,WNW,301,6.9,6.9,91,0.00,CLR,,0.09,WeatherDisplay:10.37,2013-12-24 13:58:00,
2013-12-24 08:59:00,21.4,19.2,30.33,WNW,282,5.8,5.8,91,0.00,CLR,,0.09,WeatherDisplay:10.37,2013-12-24 13:59:00,
2013-12-24 09:00:00,21.3,19.1,30.33,WSW,258,11.5,11.5,91,0.00,CLR,,0.09,WeatherDisplay:10.37,2013-12-24 14:00:00,
2013-12-24 09:01:00,21.3,19.1,30.33,WSW,251,11.5,11.5,91,0.00,CLR,,0.09,WeatherDisplay:10.37,2013-12-24 14:01:00,
2013-12-24 09:02:00,21.3,19.1,30.33,West,281,5.0,5.0,91,0.00,CLR,,0.09,WeatherDisplay:10.37,2013-12-24 14:02:00,
2013-12-24 09:03:00,21.3,19.1,30.33,WSW,240,10.4,10.4,91,0.00,CLR,,0.09,WeatherDisplay:10.37,2013-12-24 14:03:00,
2013-12-24 09:05:00,21.1,18.9,30.34,WNW,289,13.8,13.8,91,0.00,CLR,,0.09,WeatherDisplay:10.37,2013-12-24 14:05:00,
2013-12-24 09:06:00,21.1,18.9,30.34,WNW,289,11.5,11.5,91,0.00,CLR,,0.09,WeatherDisplay:10.37,2013-12-24 14:06:00,
2013-12-24 09:08:00,21.1,19.1,30.34,WNW,284,3.5,3.5,92,0.00,CLR,,0.09,WeatherDisplay:10.37,2013-12-24 14:08:00,
2013-12-24 09:10:00,21.1,19.1,30.34,WSW,243,8.1,8.1,92,0.00,CLR,,0.09,WeatherDisplay:10.37,2013-12-24 14:10:00,
2013-12-24 09:11:00,21.0,19.0,30.34,West,275,8.1,8.1,92,0.00,CLR,,0.09,WeatherDisplay:10.37,2013-12-24 14:11:00,
2013-12-24 09:13:00,21.0,19.0,30.34,WSW,257,8.1,8.1,92,0.00,CLR,,0.09,WeatherDisplay:10.37,2013-12-24 14:13:00,
2013-12-24 09:15:00,21.0,19.0,30.34,West,280,11.5,11.5,92,0.00,CLR,,0.09,WeatherDisplay:10.37,2013-12-24 14:15:00,
2013-12-24 09:17:00,21.0,19.0,30.34,West,275,11.5,11.5,92,0.00,CLR,,0.09,WeatherDisplay:10.37,2013-12-24 14:17:00,
2013-12-24 09:18:00,21.0,19.0,30.34,WNW,299,11.5,11.5,92,0.00,CLR,,0.09,WeatherDisplay:10.37,2013-12-24 14:18:00,
2013-12-24 09:19:00,20.8,18.8,30.34,WNW,285,8.1,8.1,92,0.00,CLR,,0.09,WeatherDisplay:10.37,2013-12-24 14:19:00,
2013-12-24 09:20:00,20.8,18.8,30.34,NW,305,6.9,7.3,92,0.00,CLR,,0.09,WeatherDisplay:10.37,2013-12-24 14:20:00,
2013-12-24 09:21:00,20.8,18.8,30.34,WSW,254,13.8,13.8,92,0.00,CLR,,0.09,WeatherDisplay:10.37,2013-12-24 14:21:00,
2013-12-24 09:22:00,20.8,18.8,30.35,WNW,291,11.5,11.5,92,0.00,CLR,,0.09,WeatherDisplay:10.37,2013-12-24 14:22:00,
2013-12-24 09:23:00,20.8,18.8,30.35,West,278,11.5,11.5,92,0.00,CLR,,0.09,WeatherDisplay:10.37,2013-12-24 14:23:00,
2013-12-24 09:24:00,20.8,18.8,30.34,West,277,12.7,12.7,92,0.00,CLR,,0.09,WeatherDisplay:10.37,2013-12-24 14:24:00,
2013-12-24 09:25:00,20.6,18.6,30.35,WNW,288,11.5,11.5,92,0.00,CLR,,0.09,WeatherDisplay:10.37,2013-12-24 14:25:00,
2013-12-24 09:26:00,20.6,18.9,30.35,WSW,256,11.5,11.5,93,0.00,CLR,,0.09,WeatherDisplay:10.37,2013-12-24 14:26:00,
2013-12-24 09:28:00,20.6,18.9,30.34,NW,318,6.9,6.9,93,0.00,CLR,,0.09,WeatherDisplay:10.37,2013-12-24 14:28:00,
2013-12-24 09:29:00,20.6,18.9,30.35,West,277,11.5,11.5,93,0.01,RA,,0.10,WeatherDisplay:10.37,2013-12-24 14:29:00,
2013-12-24 09:30:00,20.6,18.9,30.35,West,264,10.4,10.4,93,0.01,RA,,0.10,WeatherDisplay:10.37,2013-12-24 14:30:00,
2013-12-24 09:31:00,20.6,18.9,30.35,WSW,248,10.4,10.4,93,0.01,RA,,0.10,WeatherDisplay:10.37,2013-12-24 14:31:00,
2013-12-24 09:33:00,20.6,18.9,30.35,NW,315,10.4,10.4,93,0.01,RA,,0.10,WeatherDisplay:10.37,2013-12-24 14:33:00,
2013-12-24 09:35:00,20.6,18.9,30.35,West,277,3.5,3.5,93,0.01,RA,,0.10,WeatherDisplay:10.37,2013-12-24 14:35:00,
2013-12-24 09:36:00,20.6,18.9,30.35,West,271,6.9,6.9,93,0.01,RA,,0.10,WeatherDisplay:10.37,2013-12-24 14:36:00,
2013-12-24 09:38:00,20.6,19.1,30.35,West,278,4.6,4.6,94,0.01,RA,,0.10,WeatherDisplay:10.37,2013-12-24 14:38:00,
2013-12-24 09:40:00,20.6,19.1,30.35,WNW,291,12.7,12.7,94,0.01,,,0.10,WeatherDisplay:10.37,2013-12-24 14:40:00,
2013-12-24 09:41:00,20.6,19.1,30.35,WNW,284,1.1,1.1,94,0.01,CLR,,0.10,WeatherDisplay:10.37,2013-12-24 14:41:00,
2013-12-24 09:42:00,20.6,19.1,30.35,West,281,10.4,10.4,94,0.01,CLR,,0.10,WeatherDisplay:10.37,2013-12-24 14:42:00,
2013-12-24 09:44:00,20.6,19.1,30.35,NNW,335,9.2,9.2,94,0.01,CLR,,0.10,WeatherDisplay:10.37,2013-12-24 14:44:00,
2013-12-24 09:45:00,20.8,19.3,30.35,WSW,248,8.1,8.1,94,0.01,CLR,,0.10,WeatherDisplay:10.37,2013-12-24 14:45:00,
2013-12-24 09:46:00,20.8,19.3,30.35,WNW,296,5.8,5.8,94,0.01,CLR,,0.10,WeatherDisplay:10.37,2013-12-24 14:46:00,
2013-12-24 09:47:00,20.8,19.3,30.35,WNW,282,5.8,5.8,94,0.01,CLR,,0.10,WeatherDisplay:10.37,2013-12-24 14:47:00,
2013-12-24 09:49:00,20.8,19.3,30.35,WSW,237,9.2,9.2,94,0.01,CLR,,0.10,WeatherDisplay:10.37,2013-12-24 14:49:00,
2013-12-24 09:50:00,20.8,19.3,30.36,NW,306,13.0,13.0,94,0.01,CLR,,0.10,WeatherDisplay:10.37,2013-12-24 14:50:00,
2013-12-24 09:51:00,20.8,19.3,30.35,SW,224,12.7,12.7,94,0.01,CLR,,0.10,WeatherDisplay:10.37,2013-12-24 14:51:00,
2013-12-24 09:52:00,20.8,19.3,30.35,West,280,12.7,12.7,94,0.01,CLR,,0.10,WeatherDisplay:10.37,2013-12-24 14:52:00,
2013-12-24 09:54:00,20.6,19.1,30.35,West,263,2.3,2.3,94,0.01,CLR,,0.10,WeatherDisplay:10.37,2013-12-24 14:54:00,
2013-12-24 09:55:00,20.6,19.1,30.36,WSW,246,8.1,8.1,94,0.01,CLR,,0.10,WeatherDisplay:10.37,2013-12-24 14:55:00,
2013-12-24 09:57:00,20.6,19.1,30.36,SW,227,17.3,17.3,94,0.01,CLR,,0.10,WeatherDisplay:10.37,2013-12-24 14:57:00,
2013-12-24 09:59:00,20.5,18.8,30.36,WNW,287,11.5,11.5,93,0.01,CLR,,0.10,WeatherDisplay:10.37,2013-12-24 14:59:00,
2013-12-24 10:00:00,20.3,18.6,30.36,West,281,10.4,10.4,93,0.01,CLR,,0.10,WeatherDisplay:10.37,2013-12-24 15:00:00,
2013-12-24 10:02:00,20.3,18.6,30.36,WNW,287,6.9,6.9,93,0.01,CLR,,0.10,WeatherDisplay:10.37,2013-12-24 15:02:00,
2013-12-24 10:03:00,20.3,18.6,30.36,West,264,6.9,6.9,93,0.01,CLR,,0.10,WeatherDisplay:10.37,2013-12-24 15:03:00,
2013-12-24 10:04:00,20.3,18.8,30.36,WSW,253,3.0,3.5,94,0.01,CLR,,0.10,WeatherDisplay:10.37,2013-12-24 15:04:00,
2013-12-24 10:05:00,20.3,18.8,30.36,WSW,256,11.5,11.5,94,0.01,CLR,,0.10,WeatherDisplay:10.37,2013-12-24 15:05:00,
2013-12-24 10:07:00,20.3,18.8,30.36,West,275,10.0,10.0,94,0.01,CLR,,0.10,WeatherDisplay:10.37,2013-12-24 15:07:00,
2013-12-24 10:08:00,20.3,18.8,30.36,West,270,10.4,10.4,94,0.01,CLR,,0.10,WeatherDisplay:10.37,2013-12-24 15:08:00,
2013-12-24 10:09:00,20.3,18.8,30.36,West,263,4.6,4.6,94,0.01,CLR,,0.10,WeatherDisplay:10.37,2013-12-24 15:09:00,
2013-12-24 10:10:00,20.5,19.0,30.36,WSW,250,4.6,4.6,94,0.01,CLR,,0.10,WeatherDisplay:10.37,2013-12-24 15:10:00,
2013-12-24 10:11:00,20.5,19.0,30.36,West,278,6.9,6.9,94,0.01,CLR,,0.10,WeatherDisplay:10.37,2013-12-24 15:11:00,
2013-12-24 10:12:00,20.5,19.0,30.36,SW,222,1.1,1.6,94,0.01,CLR,,0.10,WeatherDisplay:10.37,2013-12-24 15:12:00,
2013-12-24 10:13:00,20.5,19.0,30.36,WNW,282,11.5,11.5,94,0.01,CLR,,0.10,WeatherDisplay:10.37,2013-12-24 15:13:00,
2013-12-24 10:14:00,20.5,19.0,30.36,West,267,13.0,13.0,94,0.01,CLR,,0.10,WeatherDisplay:10.37,2013-12-24 15:14:00,
2013-12-24 10:16:00,20.5,18.8,30.36,West,281,11.5,11.5,93,0.01,CLR,,0.10,WeatherDisplay:10.37,2013-12-24 15:16:00,
2013-12-24 10:17:00,20.5,18.8,30.36,West,263,10.4,10.4,93,0.01,CLR,,0.10,WeatherDisplay:10.37,2013-12-24 15:17:00,
2013-12-24 10:18:00,20.5,18.8,30.36,West,261,9.2,9.2,93,0.01,CLR,,0.10,WeatherDisplay:10.37,2013-12-24 15:18:00,
2013-12-24 10:19:00,20.5,18.8,30.36,WNW,295,10.0,10.0,93,0.01,CLR,,0.10,WeatherDisplay:10.37,2013-12-24 15:19:00,
2013-12-24 10:20:00,20.5,18.8,30.36,NW,316,12.7,12.7,93,0.01,CLR,,0.10,WeatherDisplay:10.37,2013-12-24 15:20:00,
2013-12-24 10:21:00,20.5,18.8,30.36,West,261,12.7,12.7,93,0.01,CLR,,0.10,WeatherDisplay:10.37,2013-12-24 15:21:00,
2013-12-24 10:22:00,20.5,18.8,30.36,WNW,285,11.5,11.5,93,0.01,CLR,,0.10,WeatherDisplay:10.37,2013-12-24 15:22:00,
2013-12-24 10:24:00,20.6,18.9,30.36,WNW,295,5.8,5.8,93,0.01,CLR,,0.10,WeatherDisplay:10.37,2013-12-24 15:24:00,
2013-12-24 10:25:00,20.6,18.9,30.36,West,265,8.0,8.0,93,0.01,CLR,,0.10,WeatherDisplay:10.37,2013-12-24 15:25:00,
2013-12-24 10:27:00,20.6,18.9,30.36,West,267,8.1,8.1,93,0.01,CLR,,0.10,WeatherDisplay:10.37,2013-12-24 15:27:00,
2013-12-24 10:29:00,20.6,18.6,30.36,WSW,251,12.7,12.7,92,0.00,CLR,,0.10,WeatherDisplay:10.37,2013-12-24 15:29:00,
2013-12-24 10:31:00,20.6,18.6,30.36,West,280,12.7,12.7,92,0.00,CLR,,0.10,WeatherDisplay:10.37,2013-12-24 15:31:00,
2013-12-24 10:32:00,20.5,18.5,30.36,WNW,282,11.5,11.5,92,0.00,CLR,,0.10,WeatherDisplay:10.37,2013-12-24 15:32:00,
2013-12-24 10:35:00,20.5,18.5,30.36,West,268,5.8,5.8,92,0.00,CLR,,0.10,WeatherDisplay:10.37,2013-12-24 15:35:00,
2013-12-24 10:36:00,20.5,18.5,30.36,WSW,254,8.1,8.1,92,0.00,CLR,,0.10,WeatherDisplay:10.37,2013-12-24 15:36:00,
2013-12-24 10:37:00,20.5,18.5,30.36,WSW,241,11.5,11.5,92,0.00,CLR,,0.10,WeatherDisplay:10.37,2013-12-24 15:37:00,
2013-12-24 10:38:00,20.5,18.5,30.36,SW,216,11.5,11.5,92,0.00,CLR,,0.10,WeatherDisplay:10.37,2013-12-24 15:38:00,
2013-12-24 10:40:00,20.5,18.5,30.36,West,277,11.5,11.5,92,0.00,CLR,,0.10,WeatherDisplay:10.37,2013-12-24 15:40:00,
2013-12-24 10:41:00,20.3,18.3,30.36,SSW,212,11.5,11.5,92,0.00,CLR,,0.10,WeatherDisplay:10.37,2013-12-24 15:41:00,
2013-12-24 10:42:00,20.3,18.3,30.36,WNW,284,11.5,11.5,92,0.00,CLR,,0.10,WeatherDisplay:10.37,2013-12-24 15:42:00,
2013-12-24 10:43:00,20.3,18.3,30.36,West,265,11.5,11.5,92,0.00,CLR,,0.10,WeatherDisplay:10.37,2013-12-24 15:43:00,
2013-12-24 10:45:00,20.3,18.6,30.36,SW,217,9.2,9.2,93,0.00,CLR,,0.10,WeatherDisplay:10.37,2013-12-24 15:45:00,
2013-12-24 10:46:00,20.5,18.8,30.36,WSW,239,6.9,6.9,93,0.00,CLR,,0.10,WeatherDisplay:10.37,2013-12-24 15:46:00,
2013-12-24 10:47:00,20.5,18.8,30.36,West,263,5.8,5.8,93,0.00,CLR,,0.10,WeatherDisplay:10.37,2013-12-24 15:47:00,
2013-12-24 10:48:00,20.5,18.8,30.36,WSW,254,6.0,6.0,93,0.00,CLR,,0.10,WeatherDisplay:10.37,2013-12-24 15:48:00,
2013-12-24 10:50:00,20.5,18.8,30.36,West,263,6.9,6.9,93,0.00,CLR,,0.10,WeatherDisplay:10.37,2013-12-24 15:50:00,
2013-12-24 10:51:00,20.5,18.8,30.36,WSW,253,1.1,1.1,93,0.00,CLR,,0.10,WeatherDisplay:10.37,2013-12-24 15:51:00,
2013-12-24 10:52:00,20.5,18.8,30.36,WNW,291,1.1,1.1,93,0.00,CLR,,0.10,WeatherDisplay:10.37,2013-12-24 15:52:00,
2013-12-24 10:53:00,20.6,18.9,30.36,WSW,251,1.1,1.1,93,0.00,CLR,,0.10,WeatherDisplay:10.37,2013-12-24 15:53:00,
2013-12-24 10:55:00,20.6,18.9,30.36,WSW,253,6.0,6.0,93,0.00,CLR,,0.10,WeatherDisplay:10.37,2013-12-24 15:55:00,
2013-12-24 10:56:00,20.6,18.9,30.36,West,260,1.1,1.1,93,0.00,CLR,,0.10,WeatherDisplay:10.37,2013-12-24 15:56:00,
2013-12-24 10:57:00,20.8,19.1,30.36,West,260,1.1,1.1,93,0.00,CLR,,0.10,WeatherDisplay:10.37,2013-12-24 15:57:00,
2013-12-24 10:58:00,20.8,19.1,30.36,SW,236,1.1,1.1,93,0.00,CLR,,0.10,WeatherDisplay:10.37,2013-12-24 15:58:00,
2013-12-24 11:00:00,20.8,19.1,30.36,WNW,291,6.9,6.9,93,0.00,CLR,,0.10,WeatherDisplay:10.37,2013-12-24 16:00:00,
2013-12-24 11:01:00,20.8,19.1,30.36,WSW,258,1.1,1.1,93,0.00,CLR,,0.10,WeatherDisplay:10.37,2013-12-24 16:01:00,
2013-12-24 11:02:00,20.8,19.1,30.36,WSW,257,0.0,0.0,93,0.00,CLR,,0.10,WeatherDisplay:10.37,2013-12-24 16:02:00,
2013-12-24 11:03:00,20.8,19.1,30.36,WSW,257,0.0,0.0,93,0.00,CLR,,0.10,WeatherDisplay:10.37,2013-12-24 16:03:00,
2013-12-24 11:04:00,20.8,19.1,30.36,WNW,298,0.0,0.2,93,0.00,CLR,,0.10,WeatherDisplay:10.37,2013-12-24 16:04:00,
2013-12-24 11:05:00,20.8,19.1,30.36,WNW,285,1.1,0.0,93,0.00,CLR,,0.10,WeatherDisplay:10.37,2013-12-24 16:05:00,
2013-12-24 11:06:00,20.8,19.1,30.36,WSW,258,11.5,11.5,93,0.00,CLR,,0.10,WeatherDisplay:10.37,2013-12-24 16:06:00,
2013-12-24 11:07:00,20.8,18.8,30.36,West,281,9.2,9.2,92,0.00,CLR,,0.10,WeatherDisplay:10.37,2013-12-24 16:07:00,
2013-12-24 11:08:00,20.8,18.8,30.36,WNW,298,9.2,9.2,92,0.00,CLR,,0.10,WeatherDisplay:10.37,2013-12-24 16:08:00,
2013-12-24 11:09:00,20.8,18.8,30.36,WNW,294,1.1,1.1,92,0.00,CLR,,0.10,WeatherDisplay:10.37,2013-12-24 16:09:00,
2013-12-24 11:11:00,20.8,18.8,30.36,WNW,285,8.0,8.0,92,0.00,CLR,,0.10,WeatherDisplay:10.37,2013-12-24 16:11:00,
2013-12-24 11:13:00,20.6,18.6,30.36,West,261,11.5,11.5,92,0.00,CLR,,0.10,WeatherDisplay:10.37,2013-12-24 16:13:00,
2013-12-24 11:14:00,20.8,18.8,30.36,WNW,301,11.5,11.5,92,0.00,CLR,,0.10,WeatherDisplay:10.37,2013-12-24 16:14:00,
2013-12-24 11:15:00,20.8,18.8,30.36,WNW,299,8.1,8.1,92,0.00,CLR,,0.10,WeatherDisplay:10.37,2013-12-24 16:15:00,
2013-12-24 11:16:00,20.8,18.8,30.36,WNW,299,8.1,8.1,92,0.00,CLR,,0.10,WeatherDisplay:10.37,2013-12-24 16:16:00,
2013-12-24 11:17:00,20.8,18.8,30.36,WNW,288,1.1,1.1,92,0.00,CLR,,0.10,WeatherDisplay:10.37,2013-12-24 16:17:00,
2013-12-24 11:18:00,21.0,19.3,30.36,WNW,294,1.1,1.7,93,0.00,CLR,,0.10,WeatherDisplay:10.37,2013-12-24 16:18:00,
2013-12-24 11:19:00,21.0,19.3,30.36,West,278,7.0,7.0,93,0.00,CLR,,0.10,WeatherDisplay:10.37,2013-12-24 16:19:00,
2013-12-24 11:20:00,21.0,19.3,30.36,West,270,11.5,11.5,93,0.00,CLR,,0.10,WeatherDisplay:10.37,2013-12-24 16:20:00,
2013-12-24 11:22:00,21.0,19.0,30.36,West,280,10.4,10.4,92,0.00,CLR,,0.10,WeatherDisplay:10.37,2013-12-24 16:22:00,
2013-12-24 11:24:00,21.0,19.0,30.36,West,274,10.4,10.4,92,0.00,CLR,,0.10,WeatherDisplay:10.37,2013-12-24 16:24:00,
2013-12-24 11:25:00,20.8,18.8,30.36,WSW,253,1.1,1.1,92,0.00,CLR,,0.10,WeatherDisplay:10.37,2013-12-24 16:25:00,
2013-12-24 11:27:00,20.6,18.6,30.36,West,281,10.4,10.4,92,0.00,CLR,,0.10,WeatherDisplay:10.37,2013-12-24 16:27:00,
2013-12-24 11:28:00,20.6,18.6,30.36,West,270,6.9,6.9,92,0.00,CLR,,0.10,WeatherDisplay:10.37,2013-12-24 16:28:00,
2013-12-24 11:29:00,20.6,18.6,30.36,WNW,287,6.9,6.9,92,0.00,CLR,,0.10,WeatherDisplay:10.37,2013-12-24 16:29:00,
2013-12-24 11:30:00,20.5,18.5,30.36,West,271,8.1,8.1,92,0.00,CLR,,0.10,WeatherDisplay:10.37,2013-12-24 16:30:00,
2013-12-24 11:32:00,20.3,18.3,30.36,WSW,257,6.9,6.9,92,0.00,CLR,,0.10,WeatherDisplay:10.37,2013-12-24 16:32:00,
2013-12-24 11:33:00,20.3,18.3,30.36,WNW,288,6.9,6.9,92,0.00,CLR,,0.10,WeatherDisplay:10.37,2013-12-24 16:33:00,
2013-12-24 11:34:00,20.2,18.2,30.36,West,274,8.1,8.1,92,0.01,RA,,0.11,WeatherDisplay:10.37,2013-12-24 16:34:00,
2013-12-24 11:35:00,20.2,18.2,30.36,WNW,291,2.3,2.3,92,0.01,RA,,0.11,WeatherDisplay:10.37,2013-12-24 16:35:00,
2013-12-24 11:38:00,20.2,18.5,30.36,WNW,285,4.6,4.6,93,0.01,RA,,0.11,WeatherDisplay:10.37,2013-12-24 16:38:00,
2013-12-24 11:39:00,20.2,18.5,30.36,West,278,0.0,0.0,93,0.01,RA,,0.11,WeatherDisplay:10.37,2013-12-24 16:39:00,
2013-12-24 11:40:00,20.2,18.5,30.36,West,278,0.0,0.0,93,0.01,RA,,0.11,WeatherDisplay:10.37,2013-12-24 16:40:00,
2013-12-24 11:43:00,20.2,18.5,30.36,NW,308,5.8,5.8,93,0.01,RA,,0.11,WeatherDisplay:10.37,2013-12-24 16:43:00,
2013-12-24 11:44:00,20.2,18.5,30.36,West,272,1.1,1.1,93,0.01,,,0.11,WeatherDisplay:10.37,2013-12-24 16:44:00,
2013-12-24 11:45:00,20.2,18.5,30.36,West,281,1.1,1.1,93,0.01,,,0.11,WeatherDisplay:10.37,2013-12-24 16:45:00,
2013-12-24 11:46:00,20.2,18.2,30.35,West,277,1.1,0.0,92,0.01,CLR,,0.11,WeatherDisplay:10.37,2013-12-24 16:46:00,
2013-12-24 11:48:00,20.2,18.5,30.36,West,268,6.9,6.9,93,0.01,CLR,,0.11,WeatherDisplay:10.37,2013-12-24 16:48:00,
2013-12-24 11:49:00,20.2,18.5,30.36,NW,312,5.8,5.8,93,0.01,CLR,,0.11,WeatherDisplay:10.37,2013-12-24 16:49:00,
2013-12-24 11:50:00,20.2,18.5,30.36,NW,312,5.8,5.8,93,0.01,CLR,,0.11,WeatherDisplay:10.37,2013-12-24 16:50:00,
2013-12-24 11:51:00,20.2,18.5,30.35,NW,311,0.0,0.1,93,0.01,CLR,,0.11,WeatherDisplay:10.37,2013-12-24 16:51:00,
2013-12-24 11:53:00,20.2,18.5,30.36,West,281,8.1,8.1,93,0.01,CLR,,0.11,WeatherDisplay:10.37,2013-12-24 16:53:00,
2013-12-24 11:54:00,20.2,18.5,30.35,West,271,11.5,11.5,93,0.01,CLR,,0.11,WeatherDisplay:10.37,2013-12-24 16:54:00,
2013-12-24 11:55:00,20.3,18.6,30.35,NNW,328,7.0,7.0,93,0.01,CLR,,0.11,WeatherDisplay:10.37,2013-12-24 16:55:00,
2013-12-24 11:56:00,20.3,18.6,30.35,WNW,291,6.9,6.9,93,0.01,CLR,,0.11,WeatherDisplay:10.37,2013-12-24 16:56:00,
2013-12-24 11:58:00,20.5,18.8,30.35,NNW,335,7.0,7.0,93,0.01,CLR,,0.11,WeatherDisplay:10.37,2013-12-24 16:58:00,
2013-12-24 11:59:00,20.5,18.5,30.35,West,271,8.1,8.1,92,0.01,CLR,,0.11,WeatherDisplay:10.37,2013-12-24 16:59:00,
2013-12-24 12:00:00,20.5,18.5,30.35,WSW,256,8.1,8.1,92,0.01,CLR,,0.11,WeatherDisplay:10.37,2013-12-24 17:00:00,
2013-12-24 12:01:00,20.5,18.5,30.35,NNW,335,10.4,10.4,92,0.01,CLR,,0.11,WeatherDisplay:10.37,2013-12-24 17:01:00,
2013-12-24 12:03:00,20.6,18.6,30.35,North,349,7.0,7.0,92,0.01,CLR,,0.11,WeatherDisplay:10.37,2013-12-24 17:03:00,
2013-12-24 12:04:00,20.6,18.6,30.35,WNW,298,5.0,5.0,92,0.01,CLR,,0.11,WeatherDisplay:10.37,2013-12-24 17:04:00,
2013-12-24 12:05:00,20.6,18.6,30.35,WNW,282,9.2,9.2,92,0.01,CLR,,0.11,WeatherDisplay:10.37,2013-12-24 17:05:00,
2013-12-24 12:06:00,20.6,18.6,30.35,WNW,302,8.1,8.1,92,0.01,CLR,,0.11,WeatherDisplay:10.37,2013-12-24 17:06:00,
2013-12-24 12:08:00,20.6,18.4,30.35,NNW,332,11.5,11.5,91,0.01,CLR,,0.11,WeatherDisplay:10.37,2013-12-24 17:08:00,
2013-12-24 12:09:00,20.6,18.4,30.35,NNW,335,11.5,11.5,91,0.01,CLR,,0.11,WeatherDisplay:10.37,2013-12-24 17:09:00,
2013-12-24 12:10:00,20.6,18.4,30.35,NW,318,10.4,10.4,91,0.01,CLR,,0.11,WeatherDisplay:10.37,2013-12-24 17:10:00,
2013-12-24 12:11:00,20.6,18.4,30.35,NW,306,11.5,11.5,91,0.01,CLR,,0.11,WeatherDisplay:10.37,2013-12-24 17:11:00,
2013-12-24 12:13:00,20.8,18.6,30.36,WNW,284,11.5,11.5,91,0.01,CLR,,0.11,WeatherDisplay:10.37,2013-12-24 17:13:00,
2013-12-24 12:14:00,20.8,18.3,30.35,West,271,11.5,11.5,90,0.01,CLR,,0.11,WeatherDisplay:10.37,2013-12-24 17:14:00,
2013-12-24 12:15:00,20.8,18.3,30.36,NW,315,11.5,11.5,90,0.01,CLR,,0.11,WeatherDisplay:10.37,2013-12-24 17:15:00,
2013-12-24 12:17:00,21.0,18.5,30.35,WNW,302,4.6,4.6,90,0.01,CLR,,0.11,WeatherDisplay:10.37,2013-12-24 17:17:00,
2013-12-24 12:19:00,21.0,18.5,30.36,NNW,344,11.5,11.5,90,0.01,CLR,,0.11,WeatherDisplay:10.37,2013-12-24 17:19:00,
2013-12-24 12:21:00,21.1,18.6,30.36,WNW,288,6.9,6.9,90,0.01,CLR,,0.11,WeatherDisplay:10.37,2013-12-24 17:21:00,
2013-12-24 12:22:00,21.3,19.1,30.35,NW,326,11.5,11.5,91,0.01,CLR,,0.11,WeatherDisplay:10.37,2013-12-24 17:22:00,
2013-12-24 12:24:00,21.4,18.9,30.35,West,265,6.9,6.9,90,0.01,CLR,,0.11,WeatherDisplay:10.37,2013-12-24 17:24:00,
2013-12-24 12:26:00,21.3,18.6,30.36,SW,220,17.3,17.3,89,0.01,CLR,,0.11,WeatherDisplay:10.37,2013-12-24 17:26:00,
2013-12-24 12:27:00,21.4,18.7,30.36,NW,326,11.0,11.0,89,0.01,CLR,,0.11,WeatherDisplay:10.37,2013-12-24 17:27:00,
2013-12-24 12:29:00,21.3,18.6,30.36,West,265,6.9,6.9,89,0.01,CLR,,0.11,WeatherDisplay:10.37,2013-12-24 17:29:00,
2013-12-24 12:30:00,21.3,18.6,30.36,WNW,302,11.5,11.5,89,0.01,CLR,,0.11,WeatherDisplay:10.37,2013-12-24 17:30:00,
2013-12-24 12:31:00,21.3,18.6,30.36,WNW,289,10.4,10.4,89,0.01,CLR,,0.11,WeatherDisplay:10.37,2013-12-24 17:31:00,
2013-12-24 12:32:00,21.3,18.6,30.36,WNW,287,10.4,0.0,89,0.01,CLR,,0.11,WeatherDisplay:10.37,2013-12-24 17:32:00,
2013-12-24 12:33:00,21.3,18.6,30.36,WNW,284,1.1,1.1,89,0.01,CLR,,0.11,WeatherDisplay:10.37,2013-12-24 17:33:00,
2013-12-24 12:34:00,21.3,18.6,30.36,West,278,11.0,11.0,89,0.00,CLR,,0.11,WeatherDisplay:10.37,2013-12-24 17:34:00,
2013-12-24 12:35:00,21.1,18.4,30.36,West,265,13.8,13.8,89,0.00,CLR,,0.11,WeatherDisplay:10.37,2013-12-24 17:35:00,
2013-12-24 12:37:00,21.1,18.4,30.36,NW,312,10.4,10.4,89,0.00,CLR,,0.11,WeatherDisplay:10.37,2013-12-24 17:37:00,
2013-12-24 12:38:00,21.0,18.3,30.36,NNW,340,17.0,17.0,89,0.00,CLR,,0.11,WeatherDisplay:10.37,2013-12-24 17:38:00,
2013-12-24 12:39:00,21.0,18.0,30.36,NNW,333,17.3,17.3,88,0.00,CLR,,0.11,WeatherDisplay:10.37,2013-12-24 17:39:00,
2013-12-24 12:40:00,20.8,17.8,30.36,WNW,287,11.5,11.5,88,0.00,CLR,,0.11,WeatherDisplay:10.37,2013-12-24 17:40:00,
2013-12-24 12:42:00,20.8,17.8,30.36,WNW,301,13.8,13.8,88,0.00,CLR,,0.11,WeatherDisplay:10.37,2013-12-24 17:42:00,
2013-12-24 12:43:00,20.6,17.6,30.36,NW,326,11.5,11.5,88,0.00,CLR,,0.11,WeatherDisplay:10.37,2013-12-24 17:43:00,
2013-12-24 12:44:00,20.6,17.6,30.36,WNW,294,6.9,6.9,88,0.00,CLR,,0.11,WeatherDisplay:10.37,2013-12-24 17:44:00,
2013-12-24 12:45:00,20.8,17.8,30.36,NW,305,5.8,5.8,88,0.00,CLR,,0.11,WeatherDisplay:10.37,2013-12-24 17:45:00,
2013-12-24 12:47:00,21.0,18.3,30.36,WNW,296,13.0,13.0,89,0.00,CLR,,0.11,WeatherDisplay:10.37,2013-12-24 17:47:00,
2013-12-24 12:48:00,21.0,18.0,30.36,NNW,328,17.3,17.3,88,0.00,CLR,,0.11,WeatherDisplay:10.37,2013-12-24 17:48:00,
2013-12-24 12:49:00,21.0,18.0,30.36,NW,322,11.5,11.5,88,0.00,CLR,,0.11,WeatherDisplay:10.37,2013-12-24 17:49:00,
2013-12-24 12:51:00,21.0,18.3,30.36,NNW,340,10.4,10.4,89,0.00,CLR,,0.11,WeatherDisplay:10.37,2013-12-24 17:51:00,
2013-12-24 12:53:00,21.0,18.3,30.36,West,270,11.5,11.5,89,0.00,CLR,,0.11,WeatherDisplay:10.37,2013-12-24 17:53:00,
2013-12-24 12:54:00,21.0,18.3,30.36,NW,318,12.7,12.7,89,0.00,CLR,,0.11,WeatherDisplay:10.37,2013-12-24 17:54:00,
2013-12-24 12:56:00,21.0,18.3,30.36,NNW,330,12.7,12.7,89,0.00,CLR,,0.11,WeatherDisplay:10.37,2013-12-24 17:56:00,
2013-12-24 12:58:00,20.6,17.9,30.36,WNW,292,11.5,11.5,89,0.00,CLR,,0.11,WeatherDisplay:10.37,2013-12-24 17:58:00,
2013-12-24 12:59:00,20.6,18.1,30.36,NNW,335,11.5,11.5,90,0.00,CLR,,0.11,WeatherDisplay:10.37,2013-12-24 17:59:00,
2013-12-24 13:01:00,20.5,18.0,30.36,NW,325,10.4,10.4,90,0.00,CLR,,0.11,WeatherDisplay:10.37,2013-12-24 18:01:00,
2013-12-24 13:03:00,20.5,18.3,30.37,NW,326,11.5,11.5,91,0.00,CLR,,0.11,WeatherDisplay:10.37,2013-12-24 18:03:00,
2013-12-24 13:04:00,20.3,18.1,30.37,WSW,251,19.6,19.6,91,0.00,CLR,,0.11,WeatherDisplay:10.37,2013-12-24 18:04:00,
2013-12-24 13:07:00,20.2,18.0,30.37,West,277,18.4,18.4,91,0.00,CLR,,0.11,WeatherDisplay:10.37,2013-12-24 18:07:00,
2013-12-24 13:08:00,20.2,18.0,30.37,NNW,339,13.8,13.8,91,0.00,CLR,,0.11,WeatherDisplay:10.37,2013-12-24 18:08:00,
2013-12-24 13:09:00,20.2,18.0,30.37,NW,318,8.1,8.1,91,0.00,CLR,,0.11,WeatherDisplay:10.37,2013-12-24 18:09:00,
2013-12-24 13:10:00,20.2,18.0,30.37,NW,305,11.5,11.5,91,0.00,CLR,,0.11,WeatherDisplay:10.37,2013-12-24 18:10:00,
2013-12-24 13:12:00,20.2,18.2,30.37,WNW,295,10.4,10.4,92,0.00,CLR,,0.11,WeatherDisplay:10.37,2013-12-24 18:12:00,
2013-12-24 13:13:00,20.2,18.2,30.37,NW,323,10.0,10.0,92,0.00,CLR,,0.11,WeatherDisplay:10.37,2013-12-24 18:13:00,
2013-12-24 13:14:00,20.2,18.2,30.37,West,264,13.8,13.8,92,0.00,CLR,,0.11,WeatherDisplay:10.37,2013-12-24 18:14:00,
2013-12-24 13:15:00,20.2,18.2,30.37,West,261,13.8,13.8,92,0.00,CLR,,0.11,WeatherDisplay:10.37,2013-12-24 18:15:00,
2013-12-24 13:17:00,20.3,18.3,30.37,NNW,329,12.7,12.7,92,0.00,CLR,,0.11,WeatherDisplay:10.37,2013-12-24 18:17:00,
2013-12-24 13:19:00,20.2,18.0,30.38,NW,318,12.7,12.7,91,0.00,CLR,,0.11,WeatherDisplay:10.37,2013-12-24 18:19:00,
2013-12-24 13:20:00,20.2,18.0,30.38,NW,318,13.8,13.8,91,0.00,CLR,,0.11,WeatherDisplay:10.37,2013-12-24 18:20:00,
2013-12-24 13:22:00,20.2,18.0,30.38,NNW,337,11.5,11.5,91,0.00,CLR,,0.11,WeatherDisplay:10.37,2013-12-24 18:22:00,
2013-12-24 13:24:00,20.2,18.2,30.38,West,274,12.7,12.7,92,0.00,CLR,,0.11,WeatherDisplay:10.37,2013-12-24 18:24:00,
2013-12-24 13:25:00,20.2,18.2,30.38,NW,325,3.5,4.5,92,0.00,CLR,,0.11,WeatherDisplay:10.37,2013-12-24 18:25:00,
2013-12-24 13:28:00,20.0,18.1,30.38,NNW,329,18.4,18.4,92,0.00,CLR,,0.11,WeatherDisplay:10.37,2013-12-24 18:28:00,
2013-12-24 13:29:00,20.0,18.1,30.38,NW,313,16.1,16.1,92,0.00,CLR,,0.11,WeatherDisplay:10.37,2013-12-24 18:29:00,
2013-12-24 13:30:00,20.0,18.1,30.38,West,275,10.4,10.4,92,0.00,CLR,,0.11,WeatherDisplay:10.37,2013-12-24 18:30:00,
2013-12-24 13:33:00,20.0,18.1,30.38,West,268,11.5,11.5,92,0.00,CLR,,0.11,WeatherDisplay:10.37,2013-12-24 18:33:00,
2013-12-24 13:34:00,20.0,18.1,30.38,WNW,288,1.1,1.1,92,0.00,CLR,,0.11,WeatherDisplay:10.37,2013-12-24 18:34:00,
2013-12-24 13:35:00,20.0,18.1,30.38,WNW,287,1.1,1.1,92,0.00,CLR,,0.11,WeatherDisplay:10.37,2013-12-24 18:35:00,
2013-12-24 13:36:00,20.0,18.1,30.38,NW,305,8.0,8.0,92,0.00,CLR,,0.11,WeatherDisplay:10.37,2013-12-24 18:36:00,
2013-12-24 13:39:00,20.0,18.1,30.39,WNW,296,4.6,4.6,92,0.00,CLR,,0.11,WeatherDisplay:10.37,2013-12-24 18:39:00,
2013-12-24 13:40:00,19.9,18.0,30.38,WNW,289,5.8,5.8,92,0.00,CLR,,0.11,WeatherDisplay:10.37,2013-12-24 18:40:00,
2013-12-24 13:41:00,19.9,18.0,30.39,WNW,282,8.1,8.1,92,0.00,CLR,,0.11,WeatherDisplay:10.37,2013-12-24 18:41:00,
2013-12-24 13:44:00,19.9,17.7,30.39,NW,316,17.3,17.3,91,0.00,CLR,,0.11,WeatherDisplay:10.37,2013-12-24 18:44:00,
2013-12-24 13:45:00,19.9,17.7,30.39,NW,326,7.0,7.0,91,0.00,CLR,,0.11,WeatherDisplay:10.37,2013-12-24 18:45:00,
2013-12-24 13:47:00,19.7,17.5,30.39,West,264,2.3,2.3,91,0.00,CLR,,0.11,WeatherDisplay:10.37,2013-12-24 18:47:00,
2013-12-24 13:49:00,19.7,17.5,30.39,West,271,12.7,12.7,91,0.00,CLR,,0.11,WeatherDisplay:10.37,2013-12-24 18:49:00,
2013-12-24 13:50:00,19.7,17.5,30.39,West,271,11.5,11.5,91,0.00,CLR,,0.11,WeatherDisplay:10.37,2013-12-24 18:50:00,
2013-12-24 13:52:00,19.5,17.0,30.39,WNW,284,12.7,12.7,90,0.00,CLR,,0.11,WeatherDisplay:10.37,2013-12-24 18:52:00,
2013-12-24 13:54:00,19.4,16.9,30.39,West,263,17.3,17.3,90,0.00,CLR,,0.11,WeatherDisplay:10.37,2013-12-24 18:54:00,
2013-12-24 13:55:00,19.4,16.9,30.40,SW,236,9.2,9.2,90,0.00,CLR,,0.11,WeatherDisplay:10.37,2013-12-24 18:55:00,
2013-12-24 13:57:00,19.4,16.9,30.40,WNW,295,10.4,10.4,90,0.00,CLR,,0.11,WeatherDisplay:10.37,2013-12-24 18:57:00,
2013-12-24 14:00:00,19.4,16.7,30.40,West,261,13.8,13.8,89,0.00,CLR,,0.11,WeatherDisplay:10.37,2013-12-24 19:00:00,
2013-12-24 14:01:00,19.4,16.7,30.40,West,271,12.7,12.7,89,0.00,CLR,,0.11,WeatherDisplay:10.37,2013-12-24 19:01:00,
2013-12-24 14:02:00,19.4,16.7,30.40,West,274,11.5,11.5,89,0.00,CLR,,0.11,WeatherDisplay:10.37,2013-12-24 19:02:00,
2013-12-24 14:05:00,19.4,16.7,30.40,WNW,284,4.6,4.6,89,0.00,CLR,,0.11,WeatherDisplay:10.37,2013-12-24 19:05:00,
2013-12-24 14:06:00,19.4,16.7,30.40,West,261,11.5,11.5,89,0.00,CLR,,0.11,WeatherDisplay:10.37,2013-12-24 19:06:00,
2013-12-24 14:07:00,19.4,16.7,30.40,WNW,288,11.5,11.5,89,0.00,CLR,,0.11,WeatherDisplay:10.37,2013-12-24 19:07:00,
2013-12-24 14:10:00,19.2,16.5,30.40,WNW,298,15.0,15.0,89,0.00,CLR,,0.11,WeatherDisplay:10.37,2013-12-24 19:10:00,
2013-12-24 14:11:00,19.2,16.5,30.40,West,264,6.9,6.9,89,0.00,CLR,,0.11,WeatherDisplay:10.37,2013-12-24 19:11:00,
2013-12-24 14:12:00,19.2,16.5,30.40,WSW,246,8.1,8.1,89,0.00,CLR,,0.11,WeatherDisplay:10.37,2013-12-24 19:12:00,
2013-12-24 14:15:00,19.4,16.7,30.40,NW,305,6.9,6.9,89,0.00,CLR,,0.11,WeatherDisplay:10.37,2013-12-24 19:15:00,
2013-12-24 14:16:00,19.4,16.7,30.40,NW,312,6.9,6.9,89,0.00,CLR,,0.11,WeatherDisplay:10.37,2013-12-24 19:16:00,
2013-12-24 14:17:00,19.4,16.7,30.40,WSW,254,7.0,7.0,89,0.00,CLR,,0.11,WeatherDisplay:10.37,2013-12-24 19:17:00,
2013-12-24 14:21:00,19.4,16.7,30.40,WNW,302,4.6,4.6,89,0.00,CLR,,0.11,WeatherDisplay:10.37,2013-12-24 19:21:00,
2013-12-24 14:22:00,19.4,16.7,30.40,NW,319,12.7,12.7,89,0.00,CLR,,0.11,WeatherDisplay:10.37,2013-12-24 19:22:00,
2013-12-24 14:26:00,19.2,16.2,30.41,WSW,243,12.7,12.7,88,0.00,CLR,,0.11,WeatherDisplay:10.37,2013-12-24 19:26:00,
2013-12-24 14:27:00,19.2,16.2,30.41,NW,305,11.5,11.5,88,0.00,CLR,,0.11,WeatherDisplay:10.37,2013-12-24 19:27:00,
2013-12-24 14:28:00,19.2,16.2,30.41,West,275,10.0,10.0,88,0.00,CLR,,0.11,WeatherDisplay:10.37,2013-12-24 19:28:00,
2013-12-24 14:31:00,19.1,16.1,30.41,West,278,16.1,16.1,88,0.00,CLR,,0.11,WeatherDisplay:10.37,2013-12-24 19:31:00,
2013-12-24 14:32:00,19.1,16.1,30.41,WNW,282,12.7,12.7,88,0.00,CLR,,0.11,WeatherDisplay:10.37,2013-12-24 19:32:00,
2013-12-24 14:33:00,19.1,16.1,30.41,WSW,253,11.5,11.5,88,0.00,CLR,,0.11,WeatherDisplay:10.37,2013-12-24 19:33:00,
2013-12-24 14:36:00,18.9,15.9,30.41,NW,308,12.7,12.7,88,0.00,CLR,,0.11,WeatherDisplay:10.37,2013-12-24 19:36:00,
2013-12-24 14:37:00,18.9,15.9,30.41,West,267,11.5,11.5,88,0.00,CLR,,0.11,WeatherDisplay:10.37,2013-12-24 19:37:00,
2013-12-24 14:38:00,18.9,15.9,30.41,WSW,256,8.1,8.1,88,0.00,CLR,,0.11,WeatherDisplay:10.37,2013-12-24 19:38:00,
2013-12-24 14:41:00,18.9,15.9,30.41,West,264,12.7,12.7,88,0.00,CLR,,0.11,WeatherDisplay:10.37,2013-12-24 19:41:00,
2013-12-24 14:42:00,18.9,15.9,30.41,West,277,12.7,12.7,88,0.00,CLR,,0.11,WeatherDisplay:10.37,2013-12-24 19:42:00,
2013-12-24 14:43:00,18.9,15.9,30.41,WSW,247,11.5,11.5,88,0.00,CLR,,0.11,WeatherDisplay:10.37,2013-12-24 19:43:00,
2013-12-24 14:44:00,18.9,15.9,30.42,West,268,16.1,16.1,88,0.00,CLR,,0.11,WeatherDisplay:10.37,2013-12-24 19:44:00,
2013-12-24 14:46:00,18.9,15.9,30.42,WSW,258,8.1,8.1,88,0.00,CLR,,0.11,WeatherDisplay:10.37,2013-12-24 19:46:00,
2013-12-24 14:47:00,18.9,15.9,30.42,WNW,289,10.4,10.4,88,0.00,CLR,,0.11,WeatherDisplay:10.37,2013-12-24 19:47:00,
2013-12-24 14:48:00,18.9,15.9,30.42,NW,304,8.1,8.1,88,0.00,CLR,,0.11,WeatherDisplay:10.37,2013-12-24 19:48:00,
2013-12-24 14:49:00,18.9,15.9,30.42,West,278,6.9,6.9,88,0.00,CLR,,0.11,WeatherDisplay:10.37,2013-12-24 19:49:00,
2013-12-24 14:52:00,18.9,15.9,30.42,West,268,6.9,6.9,88,0.00,CLR,,0.11,WeatherDisplay:10.37,2013-12-24 19:52:00,
2013-12-24 14:53:00,18.9,15.9,30.42,WNW,292,10.4,10.4,88,0.00,CLR,,0.11,WeatherDisplay:10.37,2013-12-24 19:53:00,
2013-12-24 14:54:00,18.9,15.9,30.42,WNW,287,9.2,9.2,88,0.00,CLR,,0.11,WeatherDisplay:10.37,2013-12-24 19:54:00,
2013-12-24 14:55:00,18.9,15.9,30.42,West,277,13.8,13.8,88,0.00,CLR,,0.11,WeatherDisplay:10.37,2013-12-24 19:55:00,
2013-12-24 14:57:00,18.8,15.8,30.42,West,265,8.1,8.1,88,0.00,CLR,,0.11,WeatherDisplay:10.37,2013-12-24 19:57:00,
2013-12-24 14:58:00,18.8,15.8,30.42,WNW,287,10.4,10.4,88,0.00,CLR,,0.11,WeatherDisplay:10.37,2013-12-24 19:58:00,
2013-12-24 14:59:00,18.8,15.8,30.42,WSW,251,10.0,10.0,88,0.00,CLR,,0.11,WeatherDisplay:10.37,2013-12-24 19:59:00,
2013-12-24 15:02:00,18.8,15.8,30.43,West,281,4.0,4.0,88,0.00,CLR,,0.11,WeatherDisplay:10.37,2013-12-24 20:02:00,
2013-12-24 15:03:00,18.8,15.8,30.42,WSW,241,8.0,8.0,88,0.00,CLR,,0.11,WeatherDisplay:10.37,2013-12-24 20:03:00,
2013-12-24 15:04:00,18.8,15.8,30.43,WNW,292,13.8,13.8,88,0.00,CLR,,0.11,WeatherDisplay:10.37,2013-12-24 20:04:00,
2013-12-24 15:07:00,18.8,15.6,30.43,WNW,291,11.5,11.5,87,0.00,CLR,,0.11,WeatherDisplay:10.37,2013-12-24 20:07:00,
2013-12-24 15:08:00,18.8,15.6,30.43,NW,304,8.1,8.1,87,0.00,CLR,,0.11,WeatherDisplay:10.37,2013-12-24 20:08:00,
2013-12-24 15:09:00,18.8,15.6,30.43,WNW,288,8.1,8.1,87,0.00,CLR,,0.11,WeatherDisplay:10.37,2013-12-24 20:09:00,
2013-12-24 15:10:00,18.8,15.6,30.43,WNW,295,8.1,8.1,87,0.00,CLR,,0.11,WeatherDisplay:10.37,2013-12-24 20:10:00,
2013-12-24 15:13:00,18.8,15.6,30.43,West,278,12.7,12.7,87,0.00,CLR,,0.11,WeatherDisplay:10.37,2013-12-24 20:13:00,
2013-12-24 15:14:00,18.8,15.6,30.43,NNW,330,11.5,11.5,87,0.00,CLR,,0.11,WeatherDisplay:10.37,2013-12-24 20:14:00,
2013-12-24 15:15:00,18.8,15.6,30.43,West,278,11.5,11.5,87,0.00,CLR,,0.11,WeatherDisplay:10.37,2013-12-24 20:15:00,
2013-12-24 15:18:00,18.8,15.6,30.43,NW,306,11.5,11.5,87,0.00,CLR,,0.11,WeatherDisplay:10.37,2013-12-24 20:18:00,
2013-12-24 15:19:00,18.8,15.6,30.43,West,264,4.6,4.6,87,0.00,CLR,,0.11,WeatherDisplay:10.37,2013-12-24 20:19:00,
2013-12-24 15:20:00,18.9,15.7,30.43,NW,308,7.0,7.0,87,0.00,CLR,,0.11,WeatherDisplay:10.37,2013-12-24 20:20:00,
2013-12-24 15:23:00,18.9,15.7,30.43,West,267,8.1,8.1,87,0.00,CLR,,0.11,WeatherDisplay:10.37,2013-12-24 20:23:00,
2013-12-24 15:24:00,18.9,15.7,30.43,NNW,330,8.1,8.1,87,0.00,CLR,,0.11,WeatherDisplay:10.37,2013-12-24 20:24:00,
2013-12-24 15:25:00,18.9,15.7,30.43,NW,312,10.4,10.4,87,0.00,CLR,,0.11,WeatherDisplay:10.37,2013-12-24 20:25:00,
2013-12-24 15:26:00,18.9,15.7,30.43,NW,305,5.8,5.8,87,0.00,CLR,,0.11,WeatherDisplay:10.37,2013-12-24 20:26:00,
2013-12-24 15:28:00,18.9,15.7,30.43,NNW,329,3.5,3.5,87,0.00,CLR,,0.11,WeatherDisplay:10.37,2013-12-24 20:28:00,
2013-12-24 15:29:00,18.9,15.9,30.44,WNW,292,1.1,1.1,88,0.00,CLR,,0.11,WeatherDisplay:10.37,2013-12-24 20:29:00,
2013-12-24 15:30:00,18.9,15.9,30.44,West,275,4.6,4.6,88,0.00,CLR,,0.11,WeatherDisplay:10.37,2013-12-24 20:30:00,
2013-12-24 15:31:00,18.9,15.9,30.44,WSW,257,4.6,4.6,88,0.00,CLR,,0.11,WeatherDisplay:10.37,2013-12-24 20:31:00,
2013-12-24 15:33:00,18.9,15.9,30.44,WNW,285,6.0,6.0,88,0.00,CLR,,0.11,WeatherDisplay:10.37,2013-12-24 20:33:00,
2013-12-24 15:35:00,18.9,16.2,30.44,NNW,346,8.1,8.1,89,0.00,CLR,,0.11,WeatherDisplay:10.37,2013-12-24 20:35:00,
2013-12-24 15:36:00,18.9,16.2,30.44,NW,306,8.1,8.1,89,0.00,CLR,,0.11,WeatherDisplay:10.37,2013-12-24 20:36:00,
2013-12-24 15:38:00,18.9,16.2,30.44,West,270,5.8,5.8,89,0.00,CLR,,0.11,WeatherDisplay:10.37,2013-12-24 20:38:00,
2013-12-24 15:40:00,18.9,16.2,30.44,West,267,0.0,0.0,89,0.00,CLR,,0.11,WeatherDisplay:10.37,2013-12-24 20:40:00,
2013-12-24 15:41:00,18.9,16.2,30.44,WNW,289,0.0,0.6,89,0.00,CLR,,0.11,WeatherDisplay:10.37,2013-12-24 20:41:00,
2013-12-24 15:43:00,18.9,16.2,30.45,West,280,8.1,8.1,89,0.01,RA,,0.12,WeatherDisplay:10.37,2013-12-24 20:43:00,
2013-12-24 15:45:00,18.8,16.1,30.45,WNW,301,6.9,6.9,89,0.01,RA,,0.12,WeatherDisplay:10.37,2013-12-24 20:45:00,
2013-12-24 15:46:00,18.8,16.1,30.45,WNW,289,1.1,0.0,89,0.01,RA,,0.12,WeatherDisplay:10.37,2013-12-24 20:46:00,
2013-12-24 15:47:00,18.8,16.4,30.45,WSW,247,7.0,7.0,90,0.01,RA,,0.12,WeatherDisplay:10.37,2013-12-24 20:47:00,
2013-12-24 15:49:00,18.8,16.4,30.45,NW,308,10.4,10.4,90,0.01,RA,,0.12,WeatherDisplay:10.37,2013-12-24 20:49:00,
2013-12-24 15:50:00,18.8,16.4,30.45,West,272,6.9,6.9,90,0.01,RA,,0.12,WeatherDisplay:10.37,2013-12-24 20:50:00,
2013-12-24 15:51:00,18.8,16.4,30.45,West,274,8.0,8.0,90,0.01,RA,,0.12,WeatherDisplay:10.37,2013-12-24 20:51:00,
2013-12-24 15:52:00,18.8,16.4,30.45,WNW,295,10.4,10.4,90,0.01,RA,,0.12,WeatherDisplay:10.37,2013-12-24 20:52:00,
2013-12-24 15:53:00,18.8,16.4,30.45,NW,313,4.6,4.6,90,0.01,,,0.12,WeatherDisplay:10.37,2013-12-24 20:53:00,
2013-12-24 15:54:00,18.8,16.4,30.45,NW,305,1.1,1.1,90,0.01,,,0.12,WeatherDisplay:10.37,2013-12-24 20:54:00,
2013-12-24 15:55:00,18.8,16.4,30.45,NNW,332,6.0,6.0,90,0.01,CLR,,0.12,WeatherDisplay:10.37,2013-12-24 20:55:00,
2013-12-24 15:56:00,18.8,16.4,30.45,NNW,336,10.4,10.4,90,0.01,CLR,,0.12,WeatherDisplay:10.37,2013-12-24 20:56:00,
2013-12-24 15:57:00,18.9,16.5,30.45,SW,230,6.9,6.9,90,0.01,CLR,,0.12,WeatherDisplay:10.37,2013-12-24 20:57:00,
2013-12-24 15:59:00,18.9,16.5,30.45,WNW,287,8.1,8.1,90,0.01,CLR,,0.12,WeatherDisplay:10.37,2013-12-24 20:59:00,
2013-12-24 16:01:00,18.9,16.5,30.45,WNW,282,2.0,2.0,90,0.01,CLR,,0.12,WeatherDisplay:10.37,2013-12-24 21:01:00,
2013-12-24 16:02:00,18.9,16.5,30.45,West,274,10.4,10.4,90,0.01,CLR,,0.12,WeatherDisplay:10.37,2013-12-24 21:02:00,
2013-12-24 16:03:00,18.9,16.5,30.45,West,270,10.4,10.4,90,0.01,CLR,,0.12,WeatherDisplay:10.37,2013-12-24 21:03:00,
2013-12-24 16:04:00,18.9,16.5,30.45,NW,313,1.1,1.1,90,0.01,CLR,,0.12,WeatherDisplay:10.37,2013-12-24 21:04:00,
2013-12-24 16:06:00,18.9,16.7,30.46,NNW,335,10.4,10.4,91,0.01,CLR,,0.12,WeatherDisplay:10.37,2013-12-24 21:06:00,
2013-12-24 16:07:00,18.8,16.6,30.46,NNW,346,12.0,12.0,91,0.01,CLR,,0.12,WeatherDisplay:10.37,2013-12-24 21:07:00,
2013-12-24 16:09:00,18.8,16.4,30.46,NW,319,11.5,11.5,90,0.01,CLR,,0.12,WeatherDisplay:10.37,2013-12-24 21:09:00,
2013-12-24 16:11:00,18.6,16.2,30.46,NW,325,8.1,8.1,90,0.01,CLR,,0.12,WeatherDisplay:10.37,2013-12-24 21:11:00,
2013-12-24 16:12:00,18.6,16.4,30.46,NW,326,9.2,9.2,91,0.01,CLR,,0.12,WeatherDisplay:10.37,2013-12-24 21:12:00,
2013-12-24 16:14:00,18.6,16.4,30.47,WSW,256,10.4,10.4,91,0.01,CLR,,0.12,WeatherDisplay:10.37,2013-12-24 21:14:00,
2013-12-24 16:15:00,18.6,16.4,30.47,WSW,256,10.4,10.4,91,0.01,CLR,,0.12,WeatherDisplay:10.37,2013-12-24 21:15:00,
2013-12-24 16:16:00,18.6,16.4,30.47,WSW,246,1.1,1.6,91,0.01,CLR,,0.12,WeatherDisplay:10.37,2013-12-24 21:16:00,
2013-12-24 16:17:00,18.6,16.4,30.47,WNW,296,5.8,5.8,91,0.01,CLR,,0.12,WeatherDisplay:10.37,2013-12-24 21:17:00,
2013-12-24 16:19:00,18.6,16.4,30.47,NW,322,6.9,6.9,91,0.01,CLR,,0.12,WeatherDisplay:10.37,2013-12-24 21:19:00,
2013-12-24 16:20:00,18.6,16.4,30.47,West,267,5.8,5.8,91,0.01,CLR,,0.12,WeatherDisplay:10.37,2013-12-24 21:20:00,
2013-12-24 16:21:00,18.6,16.4,30.47,WNW,302,6.9,6.9,91,0.01,CLR,,0.12,WeatherDisplay:10.37,2013-12-24 21:21:00,
2013-12-24 16:22:00,18.6,16.4,30.47,WNW,288,1.1,1.1,91,0.01,CLR,,0.12,WeatherDisplay:10.37,2013-12-24 21:22:00,
2013-12-24 16:24:00,18.6,16.4,30.47,West,271,6.9,6.9,91,0.01,CLR,,0.12,WeatherDisplay:10.37,2013-12-24 21:24:00,
2013-12-24 16:25:00,18.6,16.4,30.47,NNW,330,3.5,3.5,91,0.01,CLR,,0.12,WeatherDisplay:10.37,2013-12-24 21:25:00,
2013-12-24 16:26:00,18.6,16.4,30.47,NW,312,5.8,5.8,91,0.01,CLR,,0.12,WeatherDisplay:10.37,2013-12-24 21:26:00,
2013-12-24 16:27:00,18.6,16.4,30.47,NW,312,0.0,0.0,91,0.01,CLR,,0.12,WeatherDisplay:10.37,2013-12-24 21:27:00,
2013-12-24 16:29:00,18.6,16.7,30.47,NNW,330,5.8,5.8,92,0.01,CLR,,0.12,WeatherDisplay:10.37,2013-12-24 21:29:00,
2013-12-24 16:30:00,18.6,16.7,30.47,West,274,5.8,5.8,92,0.01,CLR,,0.12,WeatherDisplay:10.37,2013-12-24 21:30:00,
2013-12-24 16:31:00,18.6,16.7,30.47,NW,325,1.1,0.0,92,0.01,CLR,,0.12,WeatherDisplay:10.37,2013-12-24 21:31:00,
2013-12-24 16:32:00,18.6,16.7,30.47,NW,323,1.1,1.5,92,0.01,CLR,,0.12,WeatherDisplay:10.37,2013-12-24 21:32:00,
2013-12-24 16:34:00,18.6,16.7,30.47,NNW,335,12.0,12.0,92,0.01,CLR,,0.12,WeatherDisplay:10.37,2013-12-24 21:34:00,
2013-12-24 16:36:00,18.6,16.7,30.47,NW,305,13.8,13.8,92,0.01,CLR,,0.12,WeatherDisplay:10.37,2013-12-24 21:36:00,
2013-12-24 16:37:00,18.6,16.4,30.47,NNW,329,16.1,16.1,91,0.01,CLR,,0.12,WeatherDisplay:10.37,2013-12-24 21:37:00,
2013-12-24 16:39:00,18.6,16.4,30.47,NNW,342,11.5,11.5,91,0.01,CLR,,0.12,WeatherDisplay:10.37,2013-12-24 21:39:00,
2013-12-24 16:41:00,18.4,16.2,30.47,WSW,246,10.4,10.4,91,0.01,CLR,,0.12,WeatherDisplay:10.37,2013-12-24 21:41:00,
2013-12-24 16:42:00,18.4,16.2,30.47,NW,319,4.6,4.6,91,0.01,CLR,,0.12,WeatherDisplay:10.37,2013-12-24 21:42:00,
2013-12-24 16:43:00,18.4,16.2,30.47,WNW,294,1.1,1.1,91,0.00,CLR,,0.12,WeatherDisplay:10.37,2013-12-24 21:43:00,
2013-12-24 16:45:00,18.6,16.7,30.47,North,356,8.0,8.0,92,0.00,CLR,,0.12,WeatherDisplay:10.37,2013-12-24 21:45:00,
2013-12-24 16:46:00,18.4,16.5,30.47,WSW,253,8.1,8.1,92,0.00,CLR,,0.12,WeatherDisplay:10.37,2013-12-24 21:46:00,
2013-12-24 16:47:00,18.4,16.5,30.47,NNW,333,7.0,7.6,92,0.00,CLR,,0.12,WeatherDisplay:10.37,2013-12-24 21:47:00,
2013-12-24 16:48:00,18.4,16.5,30.47,NNW,330,13.8,13.8,92,0.00,CLR,,0.12,WeatherDisplay:10.37,2013-12-24 21:48:00,
2013-12-24 16:49:00,18.4,16.2,30.47,NNW,328,6.9,6.9,91,0.00,CLR,,0.12,WeatherDisplay:10.37,2013-12-24 21:49:00,
2013-12-24 16:50:00,18.4,16.5,30.47,NNW,340,10.4,10.4,92,0.00,CLR,,0.12,WeatherDisplay:10.37,2013-12-24 21:50:00,
2013-12-24 16:51:00,18.4,16.5,30.47,NNW,340,10.4,10.4,92,0.00,CLR,,0.12,WeatherDisplay:10.37,2013-12-24 21:51:00,
2013-12-24 16:52:00,18.4,16.5,30.47,NNW,335,8.1,8.1,92,0.00,CLR,,0.12,WeatherDisplay:10.37,2013-12-24 21:52:00,
2013-12-24 16:54:00,18.4,16.5,30.48,NNW,337,11.5,11.5,92,0.00,CLR,,0.12,WeatherDisplay:10.37,2013-12-24 21:54:00,
2013-12-24 16:56:00,18.4,16.5,30.48,NW,323,13.8,13.8,92,0.00,CLR,,0.12,WeatherDisplay:10.37,2013-12-24 21:56:00,
2013-12-24 16:57:00,18.3,16.4,30.48,NW,320,12.7,12.7,92,0.00,CLR,,0.12,WeatherDisplay:10.37,2013-12-24 21:57:00,
2013-12-24 16:58:00,18.3,16.4,30.48,NW,319,11.5,11.5,92,0.00,CLR,,0.12,WeatherDisplay:10.37,2013-12-24 21:58:00,
2013-12-24 16:59:00,18.3,16.4,30.48,NNW,337,11.5,11.5,92,0.00,CLR,,0.12,WeatherDisplay:10.37,2013-12-24 21:59:00,
2013-12-24 17:01:00,18.3,16.4,30.48,North,353,4.6,4.6,92,0.00,CLR,,0.12,WeatherDisplay:10.37,2013-12-24 22:01:00,
2013-12-24 17:02:00,18.3,16.4,30.48,NNW,344,1.1,1.1,92,0.00,CLR,,0.12,WeatherDisplay:10.37,2013-12-24 22:02:00,
2013-12-24 17:03:00,18.3,16.4,30.48,North,353,6.0,6.0,92,0.00,CLR,,0.12,WeatherDisplay:10.37,2013-12-24 22:03:00,
2013-12-24 17:04:00,18.4,16.5,30.49,SW,215,7.0,7.0,92,0.00,CLR,,0.12,WeatherDisplay:10.37,2013-12-24 22:04:00,
2013-12-24 17:06:00,18.3,16.4,30.49,NNW,346,11.5,11.5,92,0.00,CLR,,0.12,WeatherDisplay:10.37,2013-12-24 22:06:00,
2013-12-24 17:07:00,18.3,16.4,30.49,NW,304,10.4,10.4,92,0.00,CLR,,0.12,WeatherDisplay:10.37,2013-12-24 22:07:00,
2013-12-24 17:09:00,18.1,16.2,30.49,NW,323,10.4,10.4,92,0.00,CLR,,0.12,WeatherDisplay:10.37,2013-12-24 22:09:00,
2013-12-24 17:10:00,18.1,16.2,30.49,NW,323,8.1,8.1,92,0.00,CLR,,0.12,WeatherDisplay:10.37,2013-12-24 22:10:00,
2013-12-24 17:12:00,18.1,16.2,30.49,WNW,301,11.5,11.5,92,0.00,CLR,,0.12,WeatherDisplay:10.37,2013-12-24 22:12:00,
2013-12-24 17:14:00,18.1,16.2,30.49,WNW,291,3.5,3.5,92,0.00,CLR,,0.12,WeatherDisplay:10.37,2013-12-24 22:14:00,
2013-12-24 17:15:00,18.1,16.2,30.49,WNW,291,4.6,4.6,92,0.00,CLR,,0.12,WeatherDisplay:10.37,2013-12-24 22:15:00,
2013-12-24 17:17:00,18.1,16.2,30.49,NNW,337,5.8,5.8,92,0.00,CLR,,0.12,WeatherDisplay:10.37,2013-12-24 22:17:00,
2013-12-24 17:20:00,18.1,16.2,30.49,WNW,287,2.3,0.0,92,0.00,CLR,,0.12,WeatherDisplay:10.37,2013-12-24 22:20:00,
2013-12-24 17:21:00,18.1,16.2,30.49,WNW,287,11.5,11.5,92,0.00,CLR,,0.12,WeatherDisplay:10.37,2013-12-24 22:21:00,
2013-12-24 17:22:00,18.1,16.2,30.49,WNW,285,6.9,6.9,92,0.00,CLR,,0.12,WeatherDisplay:10.37,2013-12-24 22:22:00,
2013-12-24 17:25:00,18.1,16.2,30.49,North,350,8.1,8.1,92,0.00,CLR,,0.12,WeatherDisplay:10.37,2013-12-24 22:25:00,
2013-12-24 17:26:00,18.1,16.2,30.50,NW,326,10.4,10.4,92,0.00,CLR,,0.12,WeatherDisplay:10.37,2013-12-24 22:26:00,
2013-12-24 17:27:00,18.1,16.2,30.50,West,268,7.0,7.0,92,0.00,CLR,,0.12,WeatherDisplay:10.37,2013-12-24 22:27:00,
2013-12-24 17:28:00,18.1,16.2,30.50,NNW,336,12.7,12.7,92,0.00,CLR,,0.12,WeatherDisplay:10.37,2013-12-24 22:28:00,
2013-12-24 17:30:00,18.1,15.9,30.50,NW,305,3.5,3.5,91,0.00,CLR,,0.12,WeatherDisplay:10.37,2013-12-24 22:30:00,
2013-12-24 17:31:00,18.1,15.9,30.50,NW,305,3.5,3.5,91,0.00,CLR,,0.12,WeatherDisplay:10.37,2013-12-24 22:31:00,
2013-12-24 17:32:00,18.1,15.9,30.50,NW,323,1.1,1.9,91,0.00,CLR,,0.12,WeatherDisplay:10.37,2013-12-24 22:32:00,
2013-12-24 17:33:00,18.1,15.9,30.50,WNW,299,5.8,5.8,91,0.00,CLR,,0.12,WeatherDisplay:10.37,2013-12-24 22:33:00,
2013-12-24 17:36:00,18.1,15.9,30.50,NNW,332,11.5,11.5,91,0.00,CLR,,0.12,WeatherDisplay:10.37,2013-12-24 22:36:00,
2013-12-24 17:37:00,18.1,15.9,30.50,NW,326,3.5,3.5,91,0.00,CLR,,0.12,WeatherDisplay:10.37,2013-12-24 22:37:00,
2013-12-24 17:38:00,18.1,15.9,30.50,NNW,330,10.4,10.4,91,0.00,CLR,,0.12,WeatherDisplay:10.37,2013-12-24 22:38:00,
2013-12-24 17:41:00,18.3,16.1,30.50,WNW,301,8.1,8.1,91,0.00,CLR,,0.12,WeatherDisplay:10.37,2013-12-24 22:41:00,
2013-12-24 17:42:00,18.1,15.9,30.50,West,268,8.1,8.1,91,0.00,CLR,,0.12,WeatherDisplay:10.37,2013-12-24 22:42:00,
2013-12-24 17:43:00,18.3,16.1,30.50,NW,313,6.9,6.9,91,0.00,CLR,,0.12,WeatherDisplay:10.37,2013-12-24 22:43:00,
2013-12-24 17:46:00,18.1,15.9,30.50,NNW,329,11.5,11.5,91,0.00,CLR,,0.12,WeatherDisplay:10.37,2013-12-24 22:46:00,
2013-12-24 17:47:00,18.1,15.9,30.50,NNW,328,9.2,9.2,91,0.00,CLR,,0.12,WeatherDisplay:10.37,2013-12-24 22:47:00,
2013-12-24 17:48:00,18.1,15.9,30.50,NW,325,11.5,11.5,91,0.00,CLR,,0.12,WeatherDisplay:10.37,2013-12-24 22:48:00,
2013-12-24 17:52:00,18.1,15.9,30.50,NNW,340,6.9,6.9,91,0.00,CLR,,0.12,WeatherDisplay:10.37,2013-12-24 22:52:00,
2013-12-24 17:53:00,18.3,16.1,30.50,North,357,6.9,6.9,91,0.00,CLR,,0.12,WeatherDisplay:10.37,2013-12-24 22:53:00,
2013-12-24 17:57:00,18.3,16.1,30.50,NNW,336,8.1,8.1,91,0.00,CLR,,0.12,WeatherDisplay:10.37,2013-12-24 22:57:00,
2013-12-24 17:58:00,18.3,16.1,30.50,North,0,5.8,5.8,91,0.00,CLR,,0.12,WeatherDisplay:10.37,2013-12-24 22:58:00,
2013-12-24 17:59:00,18.3,16.1,30.50,NNW,337,11.5,11.5,91,0.00,CLR,,0.12,WeatherDisplay:10.37,2013-12-24 22:59:00,
2013-12-24 18:02:00,18.4,16.2,30.51,NNW,342,11.5,11.5,91,0.00,CLR,,0.12,WeatherDisplay:10.37,2013-12-24 23:02:00,
2013-12-24 18:03:00,18.4,16.2,30.51,NNW,342,11.5,11.5,91,0.00,CLR,,0.12,WeatherDisplay:10.37,2013-12-24 23:03:00,
2013-12-24 18:04:00,18.4,16.2,30.51,North,352,7.0,7.0,91,0.00,CLR,,0.12,WeatherDisplay:10.37,2013-12-24 23:04:00,
2013-12-24 18:07:00,18.4,16.2,30.51,NNW,339,11.5,11.5,91,0.00,CLR,,0.12,WeatherDisplay:10.37,2013-12-24 23:07:00,
2013-12-24 18:08:00,18.4,16.2,30.51,NNW,343,6.9,6.9,91,0.00,CLR,,0.12,WeatherDisplay:10.37,2013-12-24 23:08:00,
2013-12-24 18:09:00,18.4,16.2,30.51,NNW,340,6.9,6.9,91,0.00,CLR,,0.12,WeatherDisplay:10.37,2013-12-24 23:09:00,
2013-12-24 18:13:00,18.4,16.2,30.51,NNW,328,5.8,5.8,91,0.00,CLR,,0.12,WeatherDisplay:10.37,2013-12-24 23:13:00,
2013-12-24 18:14:00,18.3,16.1,30.51,NW,323,6.9,6.9,91,0.00,CLR,,0.12,WeatherDisplay:10.37,2013-12-24 23:14:00,
2013-12-24 18:18:00,18.3,16.1,30.51,North,356,11.5,11.5,91,0.00,CLR,,0.12,WeatherDisplay:10.37,2013-12-24 23:18:00,
2013-12-24 18:19:00,18.3,16.1,30.51,NW,319,8.1,8.1,91,0.00,CLR,,0.12,WeatherDisplay:10.37,2013-12-24 23:19:00,
2013-12-24 18:20:00,18.3,16.1,30.52,North,352,8.0,8.0,91,0.00,CLR,,0.12,WeatherDisplay:10.37,2013-12-24 23:20:00,
2013-12-24 18:23:00,18.1,15.9,30.52,NW,318,10.4,10.4,91,0.00,CLR,,0.12,WeatherDisplay:10.37,2013-12-24 23:23:00,
2013-12-24 18:24:00,18.1,15.9,30.52,NW,323,11.5,11.5,91,0.00,CLR,,0.12,WeatherDisplay:10.37,2013-12-24 23:24:00,
2013-12-24 18:25:00,18.1,15.9,30.52,NNW,340,8.1,8.1,91,0.00,CLR,,0.12,WeatherDisplay:10.37,2013-12-24 23:25:00,
2013-12-24 18:28:00,18.1,15.9,30.53,NNW,330,3.5,3.5,91,0.00,CLR,,0.12,WeatherDisplay:10.37,2013-12-24 23:28:00,
2013-12-24 18:29:00,18.1,16.2,30.53,NNW,333,5.0,5.0,92,0.00,CLR,,0.12,WeatherDisplay:10.37,2013-12-24 23:29:00,
2013-12-24 18:30:00,18.1,16.2,30.53,NNW,333,10.4,10.4,92,0.00,CLR,,0.12,WeatherDisplay:10.37,2013-12-24 23:30:00,
2013-12-24 18:33:00,18.0,15.8,30.53,North,352,6.0,6.0,91,0.00,CLR,,0.12,WeatherDisplay:10.37,2013-12-24 23:33:00,
2013-12-24 18:34:00,18.0,16.1,30.53,NNW,339,11.5,11.5,92,0.00,CLR,,0.12,WeatherDisplay:10.37,2013-12-24 23:34:00,
2013-12-24 18:35:00,18.0,16.1,30.53,North,356,11.5,11.5,92,0.00,CLR,,0.12,WeatherDisplay:10.37,2013-12-24 23:35:00,
2013-12-24 18:36:00,18.0,16.1,30.53,NW,320,11.5,11.5,92,0.00,CLR,,0.12,WeatherDisplay:10.37,2013-12-24 23:36:00,
2013-12-24 18:38:00,17.8,15.9,30.53,North,0,5.8,5.8,92,0.00,CLR,,0.12,WeatherDisplay:10.37,2013-12-24 23:38:00,
2013-12-24 18:40:00,18.0,16.1,30.53,North,0,1.1,0.0,92,0.00,CLR,,0.12,WeatherDisplay:10.37,2013-12-24 23:40:00,
2013-12-24 18:42:00,18.0,16.1,30.53,NNW,330,6.0,6.0,92,0.00,CLR,,0.12,WeatherDisplay:10.37,2013-12-24 23:42:00,
2013-12-24 18:43:00,18.0,16.1,30.53,NNW,332,8.1,8.1,92,0.00,CLR,,0.12,WeatherDisplay:10.37,2013-12-24 23:43:00,
2013-12-24 18:44:00,18.0,16.1,30.53,NNW,332,8.1,8.1,92,0.00,CLR,,0.12,WeatherDisplay:10.37,2013-12-24 23:44:00,
2013-12-24 18:45:00,18.0,16.1,30.53,North,0,6.9,6.9,92,0.00,CLR,,0.12,WeatherDisplay:10.37,2013-12-24 23:45:00,
2013-12-24 18:47:00,18.0,16.1,30.53,NNW,330,6.9,6.9,92,0.00,CLR,,0.12,WeatherDisplay:10.37,2013-12-24 23:47:00,
2013-12-24 18:49:00,18.0,16.1,30.53,NNW,333,8.1,8.1,92,0.00,CLR,,0.12,WeatherDisplay:10.37,2013-12-24 23:49:00,
2013-12-24 18:50:00,18.0,16.1,30.53,NNW,335,3.5,4.0,92,0.00,CLR,,0.12,WeatherDisplay:10.37,2013-12-24 23:50:00,
2013-12-24 18:52:00,18.0,16.1,30.53,NNW,346,6.9,6.9,92,0.00,CLR,,0.12,WeatherDisplay:10.37,2013-12-24 23:52:00,
2013-12-24 18:54:00,18.0,16.1,30.53,NNW,336,4.6,4.6,92,0.00,CLR,,0.12,WeatherDisplay:10.37,2013-12-24 23:54:00,
2013-12-24 18:55:00,18.0,16.1,30.53,NNW,333,4.6,4.6,92,0.00,CLR,,0.12,WeatherDisplay:10.37,2013-12-24 23:55:00,
2013-12-24 18:56:00,18.0,16.1,30.53,NNW,339,6.9,6.9,92,0.00,CLR,,0.12,WeatherDisplay:10.37,2013-12-24 23:56:00,
2013-12-24 18:57:00,18.0,16.1,30.53,NW,325,6.0,6.0,92,0.00,CLR,,0.12,WeatherDisplay:10.37,2013-12-24 23:57:00,
2013-12-24 18:59:00,18.0,16.1,30.53,NNW,328,8.1,8.1,92,0.00,CLR,,0.12,WeatherDisplay:10.37,2013-12-24 23:59:00,
2013-12-24 19:00:00,18.0,16.1,30.53,North,354,0.0,0.0,92,0.00,CLR,,0.12,WeatherDisplay:10.37,2013-12-25 00:00:00,
2013-12-24 19:01:00,18.0,16.1,30.53,North,354,0.0,0.0,92,0.00,CLR,,0.12,WeatherDisplay:10.37,2013-12-25 00:01:00,
2013-12-24 19:02:00,18.1,16.2,30.53,North,353,1.1,1.1,92,0.00,CLR,,0.12,WeatherDisplay:10.37,2013-12-25 00:02:00,
2013-12-24 19:04:00,18.1,16.2,30.53,North,353,5.0,5.0,92,0.00,CLR,,0.12,WeatherDisplay:10.37,2013-12-25 00:04:00,
2013-12-24 19:05:00,18.1,16.2,30.54,NNW,330,8.0,8.0,92,0.00,CLR,,0.12,WeatherDisplay:10.37,2013-12-25 00:05:00,
2013-12-24 19:06:00,18.1,16.2,30.54,NW,322,8.0,8.0,92,0.00,CLR,,0.12,WeatherDisplay:10.37,2013-12-25 00:06:00,
2013-12-24 19:07:00,18.1,16.2,30.54,NNW,336,4.6,4.6,92,0.00,CLR,,0.12,WeatherDisplay:10.37,2013-12-25 00:07:00,
2013-12-24 19:09:00,18.1,16.2,30.54,NNW,343,1.1,1.1,92,0.00,CLR,,0.12,WeatherDisplay:10.37,2013-12-25 00:09:00,
2013-12-24 19:11:00,18.1,16.2,30.54,NNW,343,0.0,0.0,92,0.00,CLR,,0.12,WeatherDisplay:10.37,2013-12-25 00:11:00,
2013-12-24 19:13:00,18.1,16.2,30.54,NNW,342,10.4,10.4,92,0.00,CLR,,0.12,WeatherDisplay:10.37,2013-12-25 00:13:00,
2013-12-24 19:14:00,18.1,16.2,30.54,NW,318,12.7,12.7,92,0.00,CLR,,0.12,WeatherDisplay:10.37,2013-12-25 00:14:00,
2013-12-24 19:16:00,18.1,16.2,30.54,NNW,330,1.1,1.5,92,0.00,CLR,,0.12,WeatherDisplay:10.37,2013-12-25 00:16:00,
2013-12-24 19:18:00,18.1,16.2,30.55,NNW,340,4.6,4.6,92,0.00,CLR,,0.13,WeatherDisplay:10.37,2013-12-25 00:18:00,
2013-12-24 19:20:00,18.1,16.2,30.55,WNW,294,1.1,0.0,92,0.01,RA,,0.13,WeatherDisplay:10.37,2013-12-25 00:20:00,
2013-12-24 19:21:00,18.1,16.2,30.55,SSW,212,1.1,0.0,92,0.01,RA,,0.13,WeatherDisplay:10.37,2013-12-25 00:21:00,
2013-12-24 19:23:00,18.1,16.2,30.55,NW,313,5.8,5.8,92,0.01,RA,,0.13,WeatherDisplay:10.37,2013-12-25 00:23:00,
2013-12-24 19:26:00,18.1,16.2,30.55,NW,308,1.1,0.0,92,0.01,RA,,0.13,WeatherDisplay:10.37,2013-12-25 00:26:00,
2013-12-24 19:27:00,18.1,16.2,30.55,NNW,342,1.1,0.0,92,0.01,RA,,0.13,WeatherDisplay:10.37,2013-12-25 00:27:00,
2013-12-24 19:28:00,18.1,16.2,30.55,NNW,342,1.1,0.0,92,0.01,RA,,0.13,WeatherDisplay:10.37,2013-12-25 00:28:00,
2013-12-24 19:31:00,18.0,16.1,30.55,NW,323,6.9,6.9,92,0.01,CLR,,0.13,WeatherDisplay:10.37,2013-12-25 00:31:00,
2013-12-24 19:32:00,18.1,16.2,30.55,NW,323,6.9,6.9,92,0.01,CLR,,0.13,WeatherDisplay:10.37,2013-12-25 00:32:00,
2013-12-24 19:34:00,18.0,16.1,30.55,NNW,328,1.1,1.6,92,0.01,CLR,,0.13,WeatherDisplay:10.37,2013-12-25 00:34:00,
2013-12-24 19:36:00,18.0,16.1,30.55,NW,319,1.1,1.1,92,0.01,CLR,,0.13,WeatherDisplay:10.37,2013-12-25 00:36:00,
2013-12-24 19:37:00,18.0,16.1,30.55,NW,322,1.1,1.1,92,0.01,CLR,,0.13,WeatherDisplay:10.37,2013-12-25 00:37:00,
2013-12-24 19:39:00,18.0,16.1,30.55,NW,320,0.0,0.0,92,0.01,CLR,,0.13,WeatherDisplay:10.37,2013-12-25 00:39:00,
2013-12-24 19:41:00,18.1,16.2,30.55,NW,320,0.0,0.0,92,0.01,CLR,,0.13,WeatherDisplay:10.37,2013-12-25 00:41:00,
2013-12-24 19:42:00,18.1,16.2,30.55,NW,320,0.0,0.0,92,0.01,CLR,,0.13,WeatherDisplay:10.37,2013-12-25 00:42:00,
2013-12-24 19:43:00,18.1,16.2,30.55,NW,320,0.0,0.0,92,0.01,CLR,,0.13,WeatherDisplay:10.37,2013-12-25 00:43:00,
2013-12-24 19:44:00,18.1,16.2,30.55,NNW,328,1.1,1.1,92,0.01,CLR,,0.13,WeatherDisplay:10.37,2013-12-25 00:44:00,
2013-12-24 19:47:00,18.1,16.2,30.55,WNW,298,1.0,0.0,92,0.01,CLR,,0.13,WeatherDisplay:10.37,2013-12-25 00:47:00,
2013-12-24 19:48:00,18.1,16.2,30.55,NW,313,1.1,1.1,92,0.01,CLR,,0.13,WeatherDisplay:10.37,2013-12-25 00:48:00,
2013-12-24 19:51:00,18.1,16.2,30.55,NW,322,0.0,0.1,92,0.01,CLR,,0.13,WeatherDisplay:10.37,2013-12-25 00:51:00,
2013-12-24 19:52:00,18.1,16.2,30.55,North,357,1.1,1.1,92,0.01,CLR,,0.13,WeatherDisplay:10.37,2013-12-25 00:52:00,
2013-12-24 19:53:00,18.1,16.2,30.55,North,349,2.3,2.3,92,0.01,CLR,,0.13,WeatherDisplay:10.37,2013-12-25 00:53:00,
2013-12-24 19:56:00,18.1,16.2,30.55,NNW,332,1.1,0.0,92,0.01,CLR,,0.13,WeatherDisplay:10.37,2013-12-25 00:56:00,
2013-12-24 19:57:00,18.1,16.2,30.55,NW,319,1.1,0.0,92,0.01,CLR,,0.13,WeatherDisplay:10.37,2013-12-25 00:57:00,
2013-12-24 19:58:00,18.1,16.2,30.55,NW,326,6.9,6.9,92,0.01,CLR,,0.13,WeatherDisplay:10.37,2013-12-25 00:58:00,
2013-12-24 20:02:00,18.0,16.1,30.55,NNW,333,0.0,0.1,92,0.01,CLR,,0.13,WeatherDisplay:10.37,2013-12-25 01:02:00,
2013-12-24 20:03:00,18.0,16.1,30.55,NNW,328,6.0,6.0,92,0.01,CLR,,0.13,WeatherDisplay:10.37,2013-12-25 01:03:00,
2013-12-24 20:07:00,18.0,16.1,30.56,NNW,330,0.0,0.0,92,0.01,CLR,,0.13,WeatherDisplay:10.37,2013-12-25 01:07:00,
2013-12-24 20:08:00,18.0,16.1,30.56,NNW,330,0.0,0.0,92,0.01,CLR,,0.13,WeatherDisplay:10.37,2013-12-25 01:08:00,
2013-12-24 20:09:00,18.1,16.2,30.56,NNW,330,0.0,0.0,92,0.01,CLR,,0.13,WeatherDisplay:10.37,2013-12-25 01:09:00,
2013-12-24 20:12:00,18.1,16.2,30.56,NNW,328,3.5,0.0,92,0.01,CLR,,0.13,WeatherDisplay:10.37,2013-12-25 01:12:00,
2013-12-24 20:13:00,18.1,16.2,30.56,NNW,328,0.0,0.0,92,0.01,CLR,,0.13,WeatherDisplay:10.37,2013-12-25 01:13:00,
2013-12-24 20:14:00,18.1,16.2,30.56,NNW,329,0.0,0.0,92,0.01,CLR,,0.13,WeatherDisplay:10.37,2013-12-25 01:14:00,
2013-12-24 20:17:00,18.1,16.2,30.56,NNW,330,0.0,0.0,92,0.01,CLR,,0.13,WeatherDisplay:10.37,2013-12-25 01:17:00,
2013-12-24 20:18:00,18.1,16.2,30.56,NNW,332,0.0,0.0,92,0.01,CLR,,0.13,WeatherDisplay:10.37,2013-12-25 01:18:00,
2013-12-24 20:19:00,18.1,16.2,30.56,NNW,332,0.0,0.0,92,0.00,CLR,,0.13,WeatherDisplay:10.37,2013-12-25 01:19:00,
2013-12-24 20:22:00,18.1,16.2,30.56,North,359,4.6,4.6,92,0.00,CLR,,0.13,WeatherDisplay:10.37,2013-12-25 01:22:00,
2013-12-24 20:23:00,18.1,16.2,30.56,North,359,4.6,4.6,92,0.00,CLR,,0.13,WeatherDisplay:10.37,2013-12-25 01:23:00,
2013-12-24 20:24:00,18.0,16.1,30.56,North,352,4.6,4.6,92,0.00,CLR,,0.13,WeatherDisplay:10.37,2013-12-25 01:24:00,
2013-12-24 20:27:00,18.0,16.1,30.57,NNW,333,1.1,0.0,92,0.00,CLR,,0.13,WeatherDisplay:10.37,2013-12-25 01:27:00,
2013-12-24 20:28:00,18.0,16.1,30.56,NNW,333,1.1,0.0,92,0.00,CLR,,0.13,WeatherDisplay:10.37,2013-12-25 01:28:00,
2013-12-24 20:29:00,18.0,16.1,30.57,NNW,333,0.0,0.0,92,0.00,CLR,,0.13,WeatherDisplay:10.37,2013-12-25 01:29:00,
2013-12-24 20:32:00,18.0,16.1,30.57,NNW,332,0.0,0.0,92,0.00,CLR,,0.13,WeatherDisplay:10.37,2013-12-25 01:32:00,
2013-12-24 20:33:00,18.0,16.1,30.57,NNW,337,0.0,0.0,92,0.00,CLR,,0.13,WeatherDisplay:10.37,2013-12-25 01:33:00,
2013-12-24 20:34:00,18.0,16.1,30.57,NNW,337,1.1,0.0,92,0.00,CLR,,0.13,WeatherDisplay:10.37,2013-12-25 01:34:00,
2013-12-24 20:35:00,18.0,16.1,30.57,NNW,337,1.1,0.0,92,0.00,CLR,,0.13,WeatherDisplay:10.37,2013-12-25 01:35:00,
2013-12-24 20:38:00,18.0,16.1,30.57,North,359,10.4,10.4,92,0.00,CLR,,0.13,WeatherDisplay:10.37,2013-12-25 01:38:00,
2013-12-24 20:39:00,18.0,16.1,30.57,North,0,9.2,9.2,92,0.00,CLR,,0.13,WeatherDisplay:10.37,2013-12-25 01:39:00,
2013-12-24 20:40:00,18.0,16.1,30.57,NNW,335,4.6,4.6,92,0.00,CLR,,0.13,WeatherDisplay:10.37,2013-12-25 01:40:00,
2013-12-24 20:44:00,18.0,16.1,30.57,NW,322,1.1,0.0,92,0.00,CLR,,0.13,WeatherDisplay:10.37,2013-12-25 01:44:00,
2013-12-24 20:45:00,18.0,16.1,30.57,NW,322,0.0,0.0,92,0.00,CLR,,0.13,WeatherDisplay:10.37,2013-12-25 01:45:00,
2013-12-24 20:46:00,18.0,16.1,30.57,NW,319,0.0,0.0,92,0.00,CLR,,0.13,WeatherDisplay:10.37,2013-12-25 01:46:00,
2013-12-24 20:49:00,18.0,16.1,30.57,NNW,344,8.1,8.1,92,0.00,CLR,,0.13,WeatherDisplay:10.37,2013-12-25 01:49:00,
2013-12-24 20:50:00,18.0,16.1,30.57,NNW,328,1.1,1.1,92,0.00,CLR,,0.13,WeatherDisplay:10.37,2013-12-25 01:50:00,
2013-12-24 20:51:00,18.0,16.1,30.57,NNW,343,1.1,0.0,92,0.00,CLR,,0.13,WeatherDisplay:10.37,2013-12-25 01:51:00,
2013-12-24 20:54:00,18.0,16.1,30.57,NNW,335,1.1,1.1,92,0.01,RA,,0.14,WeatherDisplay:10.37,2013-12-25 01:54:00,
2013-12-24 20:55:00,18.0,16.1,30.57,NNW,328,1.1,0.0,92,0.01,RA,,0.14,WeatherDisplay:10.37,2013-12-25 01:55:00,
2013-12-24 20:56:00,18.0,16.1,30.57,NNW,328,0.0,0.0,92,0.01,RA,,0.14,WeatherDisplay:10.37,2013-12-25 01:56:00,
2013-12-24 20:58:00,18.0,16.1,30.57,NNW,335,0.0,0.0,92,0.01,RA,,0.14,WeatherDisplay:10.37,2013-12-25 01:58:00,
2013-12-24 20:59:00,18.0,16.1,30.57,North,353,4.0,4.0,92,0.01,RA,,0.14,WeatherDisplay:10.37,2013-12-25 01:59:00,
2013-12-24 21:00:00,18.0,16.1,30.57,North,353,10.4,10.4,92,0.01,RA,,0.14,WeatherDisplay:10.37,2013-12-25 02:00:00,
2013-12-24 21:02:00,18.0,16.1,30.57,NNW,344,8.1,8.1,92,0.01,RA,,0.14,WeatherDisplay:10.37,2013-12-25 02:02:00,
2013-12-24 21:04:00,18.1,16.2,30.57,NNW,330,1.1,1.1,92,0.01,,,0.14,WeatherDisplay:10.37,2013-12-25 02:04:00,
2013-12-24 21:05:00,18.1,16.2,30.57,NNW,342,1.1,1.1,92,0.01,,,0.14,WeatherDisplay:10.37,2013-12-25 02:05:00,
2013-12-24 21:07:00,18.1,16.2,30.57,NNW,339,6.9,6.9,92,0.01,CLR,,0.14,WeatherDisplay:10.37,2013-12-25 02:07:00,
2013-12-24 21:10:00,18.1,16.2,30.57,North,356,5.8,5.8,92,0.01,CLR,,0.14,WeatherDisplay:10.37,2013-12-25 02:10:00,
2013-12-24 21:11:00,18.1,16.2,30.57,NNW,339,8.1,8.1,92,0.01,CLR,,0.14,WeatherDisplay:10.37,2013-12-25 02:11:00,
2013-12-24 21:12:00,18.1,16.2,30.57,North,354,8.1,8.1,92,0.01,CLR,,0.14,WeatherDisplay:10.37,2013-12-25 02:12:00,
2013-12-24 21:15:00,18.1,16.2,30.57,NNW,335,1.1,0.0,92,0.01,CLR,,0.14,WeatherDisplay:10.37,2013-12-25 02:15:00,
2013-12-24 21:16:00,18.1,16.2,30.57,WNW,284,1.1,1.1,92,0.01,CLR,,0.14,WeatherDisplay:10.37,2013-12-25 02:16:00,
2013-12-24 21:17:00,18.1,16.2,30.57,NW,326,1.1,0.0,92,0.01,CLR,,0.14,WeatherDisplay:10.37,2013-12-25 02:17:00,
2013-12-24 21:18:00,18.1,16.2,30.57,NNW,332,0.0,0.0,92,0.01,CLR,,0.14,WeatherDisplay:10.37,2013-12-25 02:18:00,
2013-12-24 21:20:00,18.1,16.2,30.57,NNW,332,0.0,0.0,92,0.01,CLR,,0.14,WeatherDisplay:10.37,2013-12-25 02:20:00,
2013-12-24 21:21:00,18.1,16.2,30.57,NNW,332,0.0,0.0,92,0.01,CLR,,0.14,WeatherDisplay:10.37,2013-12-25 02:21:00,
2013-12-24 21:22:00,18.1,16.2,30.57,NNW,332,0.0,0.0,92,0.01,CLR,,0.14,WeatherDisplay:10.37,2013-12-25 02:22:00,
2013-12-24 21:23:00,18.1,16.2,30.57,NNW,332,0.0,0.0,92,0.01,CLR,,0.14,WeatherDisplay:10.37,2013-12-25 02:23:00,
2013-12-24 21:25:00,18.1,16.2,30.57,NNW,332,0.0,0.0,92,0.01,CLR,,0.14,WeatherDisplay:10.37,2013-12-25 02:25:00,
2013-12-24 21:26:00,18.1,16.2,30.57,NNW,332,0.0,0.0,92,0.01,CLR,,0.14,WeatherDisplay:10.37,2013-12-25 02:26:00,
2013-12-24 21:27:00,18.3,16.4,30.57,NNW,332,0.0,0.0,92,0.01,CLR,,0.14,WeatherDisplay:10.37,2013-12-25 02:27:00,
2013-12-24 21:29:00,18.3,16.4,30.57,NNW,347,0.0,0.0,92,0.01,CLR,,0.14,WeatherDisplay:10.37,2013-12-25 02:29:00,
2013-12-24 21:30:00,18.3,16.4,30.57,NNW,332,0.0,0.1,92,0.01,CLR,,0.14,WeatherDisplay:10.37,2013-12-25 02:30:00,
2013-12-24 21:31:00,18.3,16.4,30.57,NNW,330,2.0,2.0,92,0.01,CLR,,0.14,WeatherDisplay:10.37,2013-12-25 02:31:00,
2013-12-24 21:32:00,18.1,16.2,30.57,North,357,5.8,0.0,92,0.01,CLR,,0.14,WeatherDisplay:10.37,2013-12-25 02:32:00,
2013-12-24 21:34:00,18.1,16.2,30.57,NW,326,1.1,0.0,92,0.01,CLR,,0.14,WeatherDisplay:10.37,2013-12-25 02:34:00,
2013-12-24 21:36:00,18.1,16.2,30.57,NW,319,5.8,5.8,92,0.01,CLR,,0.14,WeatherDisplay:10.37,2013-12-25 02:36:00,
2013-12-24 21:37:00,18.0,16.1,30.57,NNW,328,1.1,0.0,92,0.01,CLR,,0.14,WeatherDisplay:10.37,2013-12-25 02:37:00,
2013-12-24 21:38:00,18.0,16.1,30.57,NW,323,1.1,0.0,92,0.01,CLR,,0.14,WeatherDisplay:10.37,2013-12-25 02:38:00,
2013-12-24 21:39:00,18.0,16.1,30.57,NW,326,1.1,0.0,92,0.01,CLR,,0.14,WeatherDisplay:10.37,2013-12-25 02:39:00,
2013-12-24 21:41:00,17.8,15.6,30.57,NNW,342,4.6,4.6,91,0.01,CLR,,0.14,WeatherDisplay:10.37,2013-12-25 02:41:00,
2013-12-24 21:42:00,17.8,15.6,30.57,North,352,0.0,0.1,91,0.01,CLR,,0.14,WeatherDisplay:10.37,2013-12-25 02:42:00,
2013-12-24 21:43:00,17.8,15.6,30.56,North,359,1.1,1.1,91,0.01,CLR,,0.14,WeatherDisplay:10.37,2013-12-25 02:43:00,
2013-12-24 21:44:00,17.8,15.6,30.56,NW,315,1.1,1.1,91,0.01,CLR,,0.14,WeatherDisplay:10.37,2013-12-25 02:44:00,
2013-12-24 21:46:00,17.7,15.5,30.57,NW,315,0.0,0.0,91,0.01,CLR,,0.14,WeatherDisplay:10.37,2013-12-25 02:46:00,
2013-12-24 21:48:00,17.8,15.6,30.56,NW,315,0.0,0.0,91,0.01,CLR,,0.14,WeatherDisplay:10.37,2013-12-25 02:48:00,
2013-12-24 21:49:00,17.8,15.6,30.57,NNW,336,6.0,6.0,91,0.01,CLR,,0.14,WeatherDisplay:10.37,2013-12-25 02:49:00,
2013-12-24 21:51:00,17.8,15.6,30.56,NNW,329,6.9,6.9,91,0.01,CLR,,0.14,WeatherDisplay:10.37,2013-12-25 02:51:00,
2013-12-24 21:52:00,17.8,15.6,30.56,NNW,329,5.8,5.8,91,0.01,CLR,,0.14,WeatherDisplay:10.37,2013-12-25 02:52:00,
2013-12-24 21:53:00,17.8,15.6,30.56,NNW,329,0.0,0.0,91,0.01,CLR,,0.14,WeatherDisplay:10.37,2013-12-25 02:53:00,
2013-12-24 21:55:00,17.8,15.6,30.56,NNW,329,0.0,0.0,91,0.00,CLR,,0.14,WeatherDisplay:10.37,2013-12-25 02:55:00,
2013-12-24 21:56:00,17.8,15.6,30.56,NNW,332,1.1,0.0,91,0.00,CLR,,0.14,WeatherDisplay:10.37,2013-12-25 02:56:00,
2013-12-24 21:57:00,17.8,15.6,30.56,NNW,332,1.1,0.0,91,0.00,CLR,,0.14,WeatherDisplay:10.37,2013-12-25 02:57:00,
2013-12-24 21:58:00,17.8,15.6,30.56,NNW,332,0.0,0.0,91,0.00,CLR,,0.14,WeatherDisplay:10.37,2013-12-25 02:58:00,
2013-12-24 21:59:00,17.8,15.6,30.56,NNW,332,0.0,0.0,91,0.00,CLR,,0.14,WeatherDisplay:10.37,2013-12-25 02:59:00,
2013-12-24 22:00:00,17.8,15.6,30.56,WNW,299,1.1,1.1,91,0.00,CLR,,0.14,WeatherDisplay:10.37,2013-12-25 03:00:00,
2013-12-24 22:02:00,17.8,15.6,30.56,NW,306,1.1,0.0,91,0.00,CLR,,0.14,WeatherDisplay:10.37,2013-12-25 03:02:00,
2013-12-24 22:04:00,17.8,15.6,30.56,WNW,301,0.0,0.0,91,0.00,CLR,,0.14,WeatherDisplay:10.37,2013-12-25 03:04:00,
2013-12-24 22:06:00,17.8,15.6,30.56,NNW,344,1.1,1.1,91,0.00,CLR,,0.14,WeatherDisplay:10.37,2013-12-25 03:06:00,
2013-12-24 22:07:00,17.8,15.4,30.57,NNW,337,7.0,7.0,90,0.00,CLR,,0.14,WeatherDisplay:10.37,2013-12-25 03:07:00,
2013-12-24 22:09:00,17.8,15.4,30.56,North,0,8.1,8.1,90,0.00,CLR,,0.14,WeatherDisplay:10.37,2013-12-25 03:09:00,
2013-12-24 22:10:00,17.8,15.4,30.56,North,0,6.9,6.9,90,0.00,CLR,,0.14,WeatherDisplay:10.37,2013-12-25 03:10:00,
2013-12-24 22:11:00,17.8,15.4,30.56,NW,308,5.8,5.8,90,0.00,CLR,,0.14,WeatherDisplay:10.37,2013-12-25 03:11:00,
2013-12-24 22:12:00,17.7,15.3,30.56,NNW,328,1.1,0.0,90,0.00,CLR,,0.14,WeatherDisplay:10.37,2013-12-25 03:12:00,
2013-12-24 22:15:00,17.7,15.3,30.56,NW,316,0.0,0.0,90,0.00,CLR,,0.14,WeatherDisplay:10.37,2013-12-25 03:15:00,
2013-12-24 22:16:00,17.7,15.3,30.56,NW,316,0.0,0.0,90,0.00,CLR,,0.14,WeatherDisplay:10.37,2013-12-25 03:16:00,
2013-12-24 22:17:00,17.7,15.3,30.56,NNW,333,1.1,1.1,90,0.00,CLR,,0.14,WeatherDisplay:10.37,2013-12-25 03:17:00,
2013-12-24 22:18:00,17.7,15.3,30.56,NW,323,1.1,1.1,90,0.00,CLR,,0.14,WeatherDisplay:10.37,2013-12-25 03:18:00,
2013-12-24 22:20:00,17.7,15.0,30.56,NNW,329,11.5,0.0,89,0.00,CLR,,0.14,WeatherDisplay:10.37,2013-12-25 03:20:00,
2013-12-24 22:21:00,17.7,15.0,30.56,NW,325,1.0,1.0,89,0.00,CLR,,0.14,WeatherDisplay:10.37,2013-12-25 03:21:00,
2013-12-24 22:22:00,17.7,15.0,30.56,NNW,337,3.5,3.5,89,0.00,CLR,,0.14,WeatherDisplay:10.37,2013-12-25 03:22:00,
2013-12-24 22:23:00,17.7,15.0,30.56,NNW,337,1.1,1.1,89,0.00,CLR,,0.14,WeatherDisplay:10.37,2013-12-25 03:23:00,
2013-12-24 22:25:00,17.7,15.3,30.56,NW,322,6.0,6.0,90,0.00,CLR,,0.14,WeatherDisplay:10.37,2013-12-25 03:25:00,
2013-12-24 22:26:00,17.7,15.3,30.56,NNW,339,6.9,6.9,90,0.00,CLR,,0.14,WeatherDisplay:10.37,2013-12-25 03:26:00,
2013-12-24 22:27:00,17.7,15.3,30.56,NNW,333,6.9,6.9,90,0.00,CLR,,0.14,WeatherDisplay:10.37,2013-12-25 03:27:00,
2013-12-24 22:28:00,17.7,15.3,30.56,NNW,333,5.8,5.8,90,0.00,CLR,,0.14,WeatherDisplay:10.37,2013-12-25 03:28:00,
2013-12-24 22:30:00,17.7,15.3,30.57,NNW,333,0.0,0.0,90,0.00,CLR,,0.14,WeatherDisplay:10.37,2013-12-25 03:30:00,
2013-12-24 22:31:00,17.7,15.3,30.57,NNW,333,0.0,0.0,90,0.00,CLR,,0.14,WeatherDisplay:10.37,2013-12-25 03:31:00,
2013-12-24 22:32:00,17.8,15.4,30.57,NNW,333,0.0,0.0,90,0.00,CLR,,0.14,WeatherDisplay:10.37,2013-12-25 03:32:00,
2013-12-24 22:33:00,17.8,15.4,30.57,NNW,333,0.0,0.0,90,0.00,CLR,,0.14,WeatherDisplay:10.37,2013-12-25 03:33:00,
2013-12-24 22:36:00,17.8,15.4,30.57,NW,326,0.0,0.0,90,0.00,CLR,,0.14,WeatherDisplay:10.37,2013-12-25 03:36:00,
2013-12-24 22:37:00,17.8,15.4,30.57,NW,326,8.1,8.1,90,0.00,CLR,,0.14,WeatherDisplay:10.37,2013-12-25 03:37:00,
2013-12-24 22:38:00,17.8,15.4,30.57,NNW,332,8.1,8.1,90,0.00,CLR,,0.14,WeatherDisplay:10.37,2013-12-25 03:38:00,
2013-12-24 22:39:00,17.8,15.4,30.57,NNW,336,8.1,8.1,90,0.00,CLR,,0.14,WeatherDisplay:10.37,2013-12-25 03:39:00,
2013-12-24 22:41:00,17.8,15.4,30.57,NNW,336,0.0,0.0,90,0.00,CLR,,0.14,WeatherDisplay:10.37,2013-12-25 03:41:00,
2013-12-24 22:42:00,18.0,15.6,30.57,NNW,336,0.0,0.0,90,0.00,CLR,,0.14,WeatherDisplay:10.37,2013-12-25 03:42:00,
2013-12-24 22:43:00,18.0,15.6,30.57,NW,323,1.1,1.1,90,0.00,CLR,,0.14,WeatherDisplay:10.37,2013-12-25 03:43:00,
2013-12-24 22:44:00,18.0,15.6,30.57,NW,323,1.1,0.0,90,0.00,CLR,,0.14,WeatherDisplay:10.37,2013-12-25 03:44:00,
2013-12-24 22:46:00,18.0,15.6,30.57,NW,323,0.0,0.0,90,0.00,CLR,,0.14,WeatherDisplay:10.37,2013-12-25 03:46:00,
2013-12-24 22:47:00,18.0,15.6,30.57,NW,323,0.0,0.0,90,0.00,CLR,,0.14,WeatherDisplay:10.37,2013-12-25 03:47:00,
2013-12-24 22:48:00,18.0,15.6,30.57,WNW,287,0.0,0.0,90,0.00,CLR,,0.14,WeatherDisplay:10.37,2013-12-25 03:48:00,
2013-12-24 22:49:00,18.0,15.6,30.57,NW,308,1.1,1.1,90,0.00,CLR,,0.14,WeatherDisplay:10.37,2013-12-25 03:49:00,
2013-12-24 22:51:00,18.0,15.6,30.57,NNW,342,1.1,0.0,90,0.00,CLR,,0.14,WeatherDisplay:10.37,2013-12-25 03:51:00,
2013-12-24 22:52:00,18.0,15.6,30.57,NNW,342,6.0,6.0,90,0.00,CLR,,0.14,WeatherDisplay:10.37,2013-12-25 03:52:00,
2013-12-24 22:54:00,18.0,15.6,30.57,NNW,343,5.8,5.8,90,0.00,CLR,,0.14,WeatherDisplay:10.37,2013-12-25 03:54:00,
2013-12-24 22:55:00,18.0,15.6,30.57,NNW,343,0.0,0.0,90,0.00,CLR,,0.14,WeatherDisplay:10.37,2013-12-25 03:55:00,
2013-12-24 22:56:00,18.0,15.6,30.57,NW,326,5.0,5.0,90,0.00,CLR,,0.14,WeatherDisplay:10.37,2013-12-25 03:56:00,
2013-12-24 22:57:00,18.0,15.6,30.57,NNW,335,8.1,8.1,90,0.00,CLR,,0.14,WeatherDisplay:10.37,2013-12-25 03:57:00,
2013-12-24 22:58:00,18.0,15.6,30.57,NNW,346,2.3,2.3,90,0.00,CLR,,0.14,WeatherDisplay:10.37,2013-12-25 03:58:00,
2013-12-24 22:59:00,18.0,15.6,30.57,NNW,332,7.0,7.0,90,0.00,CLR,,0.14,WeatherDisplay:10.37,2013-12-25 03:59:00,
2013-12-24 23:00:00,18.0,15.6,30.57,NNW,346,8.1,8.1,90,0.00,CLR,,0.14,WeatherDisplay:10.37,2013-12-25 04:00:00,
2013-12-24 23:01:00,18.0,15.6,30.57,North,356,8.1,8.1,90,0.00,CLR,,0.14,WeatherDisplay:10.37,2013-12-25 04:01:00,
2013-12-24 23:03:00,18.0,15.6,30.57,North,0,8.1,8.1,90,0.00,CLR,,0.14,WeatherDisplay:10.37,2013-12-25 04:03:00,
2013-12-24 23:04:00,18.0,15.6,30.57,North,1,5.8,5.8,90,0.00,CLR,,0.14,WeatherDisplay:10.37,2013-12-25 04:04:00,
2013-12-24 23:07:00,17.8,15.4,30.57,North,349,5.8,5.8,90,0.00,CLR,,0.14,WeatherDisplay:10.37,2013-12-25 04:07:00,
2013-12-24 23:08:00,17.8,15.4,30.57,North,349,5.8,5.8,90,0.00,CLR,,0.14,WeatherDisplay:10.37,2013-12-25 04:08:00,
2013-12-24 23:10:00,17.8,15.4,30.57,North,0,8.1,8.1,90,0.00,CLR,,0.14,WeatherDisplay:10.37,2013-12-25 04:10:00,
2013-12-24 23:12:00,17.8,15.4,30.57,North,356,0.0,0.0,90,0.00,CLR,,0.14,WeatherDisplay:10.37,2013-12-25 04:12:00,
2013-12-24 23:13:00,17.8,15.4,30.57,North,356,1.1,1.1,90,0.00,CLR,,0.14,WeatherDisplay:10.37,2013-12-25 04:13:00,
2013-12-24 23:14:00,17.8,15.4,30.57,North,356,1.1,1.1,90,0.00,CLR,,0.14,WeatherDisplay:10.37,2013-12-25 04:14:00,
2013-12-24 23:15:00,17.8,15.4,30.57,North,356,1.1,1.1,90,0.00,CLR,,0.14,WeatherDisplay:10.37,2013-12-25 04:15:00,
2013-12-24 23:17:00,17.8,15.4,30.57,North,0,1.1,1.1,90,0.00,CLR,,0.14,WeatherDisplay:10.37,2013-12-25 04:17:00,
2013-12-24 23:18:00,17.8,15.4,30.57,North,0,1.1,0.0,90,0.00,CLR,,0.14,WeatherDisplay:10.37,2013-12-25 04:18:00,
2013-12-24 23:19:00,17.8,15.6,30.57,NNW,337,0.0,0.1,91,0.00,CLR,,0.14,WeatherDisplay:10.37,2013-12-25 04:19:00,
2013-12-24 23:20:00,17.8,15.6,30.57,NNW,337,3.5,3.5,91,0.00,CLR,,0.14,WeatherDisplay:10.37,2013-12-25 04:20:00,
2013-12-24 23:23:00,17.7,15.5,30.57,North,359,1.1,1.1,91,0.00,CLR,,0.14,WeatherDisplay:10.37,2013-12-25 04:23:00,
2013-12-24 23:25:00,17.7,15.3,30.57,North,10,1.1,1.1,90,0.00,CLR,,0.14,WeatherDisplay:10.37,2013-12-25 04:25:00,
2013-12-24 23:26:00,17.7,15.3,30.57,North,10,1.1,0.0,90,0.00,CLR,,0.14,WeatherDisplay:10.37,2013-12-25 04:26:00,
2013-12-24 23:28:00,17.7,15.3,30.57,North,10,0.0,0.0,90,0.00,CLR,,0.14,WeatherDisplay:10.37,2013-12-25 04:28:00,
2013-12-24 23:30:00,17.7,15.5,30.57,North,10,0.0,0.0,91,0.00,CLR,,0.14,WeatherDisplay:10.37,2013-12-25 04:30:00,
2013-12-24 23:31:00,17.7,15.5,30.57,North,10,0.0,0.0,91,0.00,CLR,,0.14,WeatherDisplay:10.37,2013-12-25 04:31:00,
2013-12-24 23:33:00,17.7,15.5,30.57,North,10,0.0,0.0,91,0.00,CLR,,0.14,WeatherDisplay:10.37,2013-12-25 04:33:00,
2013-12-24 23:34:00,17.7,15.5,30.57,North,10,0.0,0.0,91,0.00,CLR,,0.14,WeatherDisplay:10.37,2013-12-25 04:34:00,
2013-12-24 23:35:00,17.7,15.5,30.57,North,10,0.0,0.0,91,0.00,CLR,,0.14,WeatherDisplay:10.37,2013-12-25 04:35:00,
2013-12-24 23:36:00,17.7,15.5,30.57,North,10,0.0,0.0,91,0.00,CLR,,0.14,WeatherDisplay:10.37,2013-12-25 04:36:00,
2013-12-24 23:38:00,17.7,15.5,30.57,North,10,0.0,0.0,91,0.00,CLR,,0.14,WeatherDisplay:10.37,2013-12-25 04:38:00,
2013-12-24 23:39:00,17.7,15.5,30.57,North,10,0.0,0.0,91,0.00,CLR,,0.14,WeatherDisplay:10.37,2013-12-25 04:39:00,
2013-12-24 23:40:00,17.7,15.5,30.57,North,10,0.0,0.0,91,0.00,CLR,,0.14,WeatherDisplay:10.37,2013-12-25 04:40:00,
2013-12-24 23:41:00,17.7,15.5,30.57,North,10,0.0,0.0,91,0.00,CLR,,0.14,WeatherDisplay:10.37,2013-12-25 04:41:00,
2013-12-24 23:42:00,17.7,15.5,30.57,North,10,0.0,0.0,91,0.00,CLR,,0.14,WeatherDisplay:10.37,2013-12-25 04:42:00,
2013-12-24 23:43:00,17.5,15.3,30.57,North,10,0.0,0.0,91,0.00,CLR,,0.14,WeatherDisplay:10.37,2013-12-25 04:43:00,
2013-12-24 23:44:00,17.5,15.3,30.57,North,10,0.0,0.0,91,0.00,CLR,,0.14,WeatherDisplay:10.37,2013-12-25 04:44:00,
2013-12-24 23:46:00,17.5,15.3,30.57,North,10,0.0,0.0,91,0.00,CLR,,0.14,WeatherDisplay:10.37,2013-12-25 04:46:00,
2013-12-24 23:47:00,17.3,15.1,30.57,North,10,0.0,0.0,91,0.00,CLR,,0.14,WeatherDisplay:10.37,2013-12-25 04:47:00,
2013-12-24 23:48:00,17.3,15.1,30.57,North,10,0.0,0.0,91,0.00,CLR,,0.14,WeatherDisplay:10.37,2013-12-25 04:48:00,
2013-12-24 23:50:00,17.3,15.1,30.57,North,10,0.0,0.0,91,0.00,CLR,,0.14,WeatherDisplay:10.37,2013-12-25 04:50:00,
2013-12-24 23:51:00,17.3,15.1,30.57,North,10,0.0,0.0,91,0.00,CLR,,0.14,WeatherDisplay:10.37,2013-12-25 04:51:00,
2013-12-24 23:52:00,17.3,15.1,30.57,North,10,0.0,0.0,91,0.00,CLR,,0.14,WeatherDisplay:10.37,2013-12-25 04:52:00,
2013-12-24 23:53:00,17.3,15.1,30.57,North,10,0.0,0.0,91,0.00,CLR,,0.14,WeatherDisplay:10.37,2013-12-25 04:53:00,
2013-12-24 23:54:00,17.3,15.1,30.57,North,10,0.0,0.0,91,0.00,CLR,,0.14,WeatherDisplay:10.37,2013-12-25 04:54:00,
2013-12-24 23:55:00,17.3,15.1,30.57,North,11,0.0,0.0,91,0.00,CLR,,0.14,WeatherDisplay:10.37,2013-12-25 04:55:00,
2013-12-24 23:56:00,17.3,15.1,30.57,North,11,0.0,0.0,91,0.00,CLR,,0.14,WeatherDisplay:10.37,2013-12-25 04:56:00,
2013-12-24 23:57:00,17.3,15.1,30.57,North,11,0.0,0.0,91,0.00,CLR,,0.14,WeatherDisplay:10.37,2013-12-25 04:57:00,
2013-12-24 23:59:00,17.3,15.1,30.57,North,11,0.0,0.0,91,0.00,CLR,,0.14,WeatherDisplay:10.37,2013-12-25 04:59:00,